GFSWCAN_prec_precacc24_159.txt.gz
Total_Precipitation_Accumulation
0.99 1.31 1.47 0.82 0.43 0.29 0.20 0.18 0.16 0.17 0.16 0.16 0.15 0.18 0.23 0.23 0.27 0.43 0.29 0.21 0.42 0.52 0.24 0.50 0.55 0.24 0.12 0.04 0.01 0.01 0.06 0.07 0.09 0.09 0.05 0.02 0.00 0.00 0.00 0.00 0.00 0.00 0.00 0.00 0.01 0.03 0.02 0.00 0.00 0.01 0.01 0.02 0.06 0.09
0.99 1.42 1.57 0.78 0.42 0.31 0.21 0.16 0.14 0.17 0.17 0.16 0.13 0.16 0.17 0.14 0.19 0.35 0.34 0.25 0.27 0.62 0.41 0.24 0.41 0.24 0.21 0.13 0.06 0.01 0.01 0.01 0.01 0.01 0.00 0.00 0.00 0.00 0.00 0.00 0.00 0.00 0.00 0.01 0.02 0.02 0.00 0.00 0.00 0.00 0.01 0.02 0.05 0.03
0.82 1.51 1.45 0.70 0.42 0.29 0.24 0.19 0.18 0.15 0.16 0.16 0.15 0.13 0.12 0.10 0.13 0.26 0.30 0.33 0.25 0.36 0.55 0.36 0.29 0.25 0.13 0.09 0.08 0.07 0.02 0.01 0.00 0.00 0.00 0.00 0.00 0.00 0.00 0.00 0.00 0.00 0.00 0.00 0.00 0.00 0.00 0.00 0.00 0.00 0.00 0.01 0.00 0.00
0.88 1.48 1.28 0.64 0.35 0.24 0.20 0.19 0.17 0.15 0.15 0.19 0.17 0.10 0.09 0.09 0.12 0.21 0.24 0.22 0.23 0.22 0.47 0.44 0.32 0.30 0.20 0.13 0.05 0.04 0.01 0.01 0.00 0.00 0.00 0.00 0.00 0.00 0.00 0.00 0.00 0.00 0.00 0.00 0.00 0.00 0.00 0.01 0.00 0.00 0.00 0.00 0.00 0.00
1.02 1.29 1.03 0.59 0.31 0.25 0.21 0.16 0.15 0.19 0.21 0.19 0.14 0.10 0.08 0.10 0.15 0.21 0.18 0.15 0.20 0.24 0.20 0.21 0.36 0.29 0.28 0.27 0.04 0.01 0.01 0.02 0.00 0.00 0.00 0.00 0.00 0.00 0.00 0.00 0.00 0.00 0.00 0.00 0.01 0.00 0.00 0.00 0.00 0.00 0.00 0.00 0.00 0.00
1.15 1.17 0.85 0.51 0.35 0.30 0.21 0.18 0.20 0.24 0.21 0.16 0.10 0.07 0.07 0.11 0.16 0.35 0.53 0.30 0.22 0.21 0.27 0.38 0.36 0.31 0.24 0.17 0.07 0.01 0.00 0.01 0.00 0.00 0.00 0.00 0.00 0.00 0.00 0.00 0.00 0.00 0.00 0.00 0.00 0.00 0.00 0.00 0.00 0.00 0.00 0.00 0.00 0.00
1.09 1.16 0.94 0.64 0.41 0.31 0.22 0.22 0.25 0.24 0.18 0.13 0.09 0.09 0.10 0.12 0.12 0.16 0.20 0.13 0.11 0.15 0.28 0.30 0.31 0.26 0.11 0.03 0.01 0.00 0.00 0.00 0.00 0.00 0.00 0.00 0.00 0.00 0.00 0.00 0.00 0.00 0.00 0.00 0.00 0.00 0.00 0.00 0.00 0.00 0.00 0.00 0.00 0.00
0.96 0.89 0.79 0.80 0.42 0.29 0.24 0.26 0.25 0.19 0.13 0.10 0.12 0.13 0.18 0.22 0.16 0.09 0.05 0.01 0.01 0.16 0.14 0.18 0.18 0.16 0.05 0.00 0.00 0.00 0.00 0.00 0.00 0.00 0.00 0.00 0.00 0.00 0.00 0.00 0.00 0.00 0.00 0.00 0.00 0.00 0.00 0.00 0.00 0.00 0.00 0.00 0.00 0.00
0.85 0.67 0.57 0.50 0.37 0.29 0.25 0.18 0.14 0.10 0.09 0.10 0.13 0.21 0.32 0.24 0.14 0.15 0.11 0.07 0.01 0.09 0.04 0.04 0.04 0.04 0.00 0.00 0.00 0.00 0.00 0.00 0.00 0.00 0.00 0.00 0.00 0.00 0.00 0.00 0.00 0.00 0.00 0.00 0.00 0.00 0.00 0.00 0.00 0.00 0.00 0.00 0.00 0.00
0.61 0.49 0.41 0.36 0.29 0.24 0.17 0.11 0.08 0.07 0.07 0.13 0.26 0.41 0.47 0.15 0.09 0.38 0.47 0.27 0.04 0.01 0.00 0.00 0.00 0.00 0.00 0.00 0.00 0.00 0.00 0.00 0.00 0.00 0.00 0.00 0.01 0.00 0.00 0.00 0.00 0.00 0.00 0.00 0.00 0.00 0.00 0.00 0.00 0.00 0.00 0.00 0.00 0.00
0.45 0.35 0.29 0.24 0.21 0.17 0.10 0.06 0.06 0.06 0.10 0.09 0.15 0.16 0.07 0.11 0.21 0.42 0.26 0.08 0.01 0.01 0.00 0.00 0.00 0.00 0.00 0.00 0.00 0.00 0.00 0.00 0.00 0.01 0.01 0.01 0.01 0.00 0.00 0.00 0.00 0.00 0.00 0.00 0.00 0.00 0.00 0.00 0.00 0.00 0.00 0.00 0.00 0.00
0.35 0.30 0.25 0.23 0.21 0.14 0.10 0.08 0.06 0.05 0.03 0.01 0.06 0.07 0.09 0.13 0.13 0.09 0.02 0.00 0.00 0.00 0.00 0.00 0.00 0.00 0.00 0.00 0.00 0.00 0.00 0.00 0.01 0.01 0.03 0.01 0.00 0.00 0.00 0.00 0.00 0.00 0.00 0.00 0.00 0.00 0.00 0.00 0.00 0.00 0.00 0.00 0.00 0.00
0.30 0.27 0.23 0.20 0.16 0.12 0.08 0.06 0.03 0.00 0.00 0.01 0.00 0.01 0.03 0.03 0.01 0.00 0.00 0.00 0.00 0.00 0.00 0.00 0.00 0.00 0.00 0.00 0.00 0.00 0.00 0.00 0.01 0.01 0.01 0.00 0.00 0.00 0.00 0.00 0.00 0.00 0.00 0.00 0.00 0.00 0.00 0.00 0.00 0.00 0.00 0.00 0.00 0.00
0.22 0.24 0.23 0.20 0.13 0.09 0.04 0.02 0.00 0.00 0.00 0.01 0.00 0.00 0.00 0.00 0.00 0.00 0.00 0.00 0.00 0.00 0.00 0.00 0.00 0.00 0.00 0.00 0.00 0.00 0.00 0.00 0.01 0.01 0.00 0.00 0.00 0.00 0.00 0.00 0.00 0.00 0.00 0.00 0.00 0.00 0.00 0.00 0.00 0.00 0.00 0.00 0.00 0.00
0.13 0.17 0.16 0.11 0.06 0.03 0.01 0.00 0.00 0.00 0.00 0.00 0.00 0.00 0.01 0.01 0.01 0.00 0.00 0.00 0.00 0.00 0.00 0.00 0.00 0.00 0.00 0.00 0.00 0.00 0.00 0.00 0.00 0.00 0.01 0.00 0.00 0.00 0.00 0.00 0.00 0.00 0.00 0.00 0.00 0.00 0.00 0.00 0.00 0.00 0.00 0.00 0.00 0.00
0.23 0.30 0.27 0.14 0.06 0.01 0.00 0.00 0.00 0.00 0.00 0.00 0.04 0.07 0.08 0.04 0.04 0.01 0.01 0.01 0.01 0.00 0.00 0.00 0.00 0.00 0.00 0.00 0.00 0.00 0.00 0.00 0.00 0.01 0.00 0.00 0.03 0.03 0.01 0.01 0.00 0.00 0.00 0.00 0.00 0.00 0.00 0.00 0.00 0.00 0.00 0.00 0.00 0.00
0.20 0.29 0.31 0.13 0.05 0.00 0.00 0.00 0.00 0.00 0.00 0.02 0.08 0.11 0.08 0.07 0.06 0.03 0.01 0.00 0.00 0.01 0.00 0.00 0.00 0.00 0.00 0.00 0.00 0.00 0.00 0.01 0.00 0.00 0.00 0.01 0.01 0.01 0.00 0.00 0.00 0.00 0.00 0.00 0.00 0.00 0.00 0.00 0.00 0.00 0.01 0.00 0.00 0.00
0.10 0.26 0.28 0.14 0.02 0.00 0.00 0.00 0.00 0.00 0.02 0.07 0.13 0.16 0.06 0.11 0.05 0.02 0.00 0.00 0.01 0.00 0.00 0.00 0.01 0.00 0.00 0.00 0.00 0.00 0.00 0.00 0.00 0.00 0.00 0.00 0.00 0.00 0.00 0.00 0.00 0.00 0.00 0.00 0.00 0.00 0.00 0.00 0.00 0.00 0.00 0.00 0.00 0.00
0.27 0.36 0.30 0.05 0.00 0.00 0.01 0.00 0.00 0.02 0.07 0.10 0.16 0.10 0.06 0.10 0.04 0.02 0.00 0.00 0.00 0.00 0.00 0.00 0.00 0.00 0.00 0.01 0.00 0.00 0.00 0.00 0.00 0.01 0.01 0.01 0.00 0.00 0.00 0.00 0.00 0.00 0.00 0.00 0.00 0.00 0.00 0.00 0.01 0.00 0.00 0.00 0.01 0.01
0.40 0.43 0.20 0.05 0.01 0.00 0.00 0.00 0.00 0.00 0.04 0.07 0.08 0.05 0.03 0.03 0.01 0.00 0.00 0.00 0.00 0.00 0.00 0.00 0.01 0.01 0.01 0.00 0.00 0.00 0.00 0.00 0.00 0.01 0.02 0.02 0.01 0.00 0.00 0.00 0.00 0.00 0.01 0.01 0.02 0.00 0.00 0.00 0.00 0.00 0.00 0.00 0.02 0.03
0.48 0.54 0.26 0.12 0.06 0.01 0.00 0.00 0.00 0.00 0.01 0.04 0.05 0.01 0.01 0.00 0.00 0.00 0.00 0.00 0.00 0.00 0.00 0.01 0.01 0.01 0.01 0.00 0.00 0.00 0.00 0.00 0.00 0.00 0.00 0.02 0.02 0.01 0.01 0.01 0.00 0.00 0.01 0.01 0.01 0.00 0.00 0.01 0.00 0.00 0.01 0.02 0.01 0.01
0.32 0.33 0.31 0.14 0.03 0.00 0.00 0.00 0.00 0.00 0.01 0.02 0.00 0.00 0.00 0.00 0.00 0.00 0.00 0.00 0.00 0.01 0.00 0.00 0.01 0.01 0.01 0.00 0.01 0.00 0.00 0.00 0.00 0.00 0.00 0.00 0.02 0.02 0.03 0.02 0.01 0.02 0.01 0.01 0.01 0.00 0.01 0.00 0.00 0.00 0.02 0.02 0.01 0.01
0.20 0.24 0.13 0.02 0.00 0.00 0.01 0.00 0.00 0.00 0.00 0.00 0.00 0.00 0.00 0.00 0.00 0.00 0.00 0.00 0.00 0.00 0.01 0.00 0.00 0.00 0.01 0.01 0.01 0.00 0.00 0.00 0.00 0.00 0.01 0.01 0.01 0.01 0.02 0.01 0.01 0.01 0.01 0.01 0.00 0.00 0.00 0.00 0.00 0.01 0.00 0.00 0.02 0.03
0.16 0.23 0.06 0.00 0.00 0.01 0.00 0.00 0.00 0.00 0.00 0.00 0.00 0.00 0.00 0.00 0.00 0.00 0.00 0.00 0.00 0.00 0.01 0.01 0.01 0.01 0.02 0.02 0.01 0.01 0.01 0.00 0.00 0.02 0.02 0.01 0.03 0.04 0.01 0.01 0.01 0.00 0.00 0.00 0.00 0.01 0.01 0.01 0.01 0.00 0.01 0.01 0.01 0.02
0.15 0.17 0.01 0.00 0.00 0.00 0.00 0.00 0.00 0.00 0.00 0.00 0.00 0.00 0.00 0.01 0.00 0.00 0.00 0.00 0.00 0.00 0.01 0.01 0.01 0.00 0.00 0.01 0.01 0.01 0.00 0.00 0.00 0.01 0.03 0.01 0.01 0.03 0.04 0.03 0.02 0.01 0.00 0.01 0.02 0.02 0.02 0.03 0.02 0.02 0.01 0.01 0.01 0.00
0.07 0.06 0.00 0.00 0.00 0.00 0.00 0.00 0.00 0.00 0.00 0.00 0.00 0.00 0.00 0.00 0.00 0.00 0.00 0.00 0.00 0.00 0.01 0.01 0.01 0.01 0.00 0.00 0.01 0.01 0.01 0.00 0.00 0.01 0.03 0.01 0.00 0.01 0.01 0.02 0.03 0.04 0.01 0.00 0.01 0.02 0.02 0.02 0.02 0.02 0.01 0.01 0.00 0.00
0.00 0.00 0.00 0.00 0.00 0.00 0.00 0.00 0.00 0.00 0.00 0.00 0.00 0.00 0.00 0.00 0.00 0.00 0.00 0.00 0.00 0.00 0.00 0.00 0.00 0.00 0.00 0.00 0.01 0.00 0.00 0.00 0.01 0.00 0.00 0.01 0.01 0.00 0.00 0.00 0.00 0.00 0.00 0.01 0.01 0.01 0.01 0.01 0.01 0.01 0.01 0.01 0.01 0.01
0.00 0.00 0.00 0.00 0.00 0.00 0.00 0.00 0.00 0.00 0.00 0.00 0.00 0.00 0.00 0.00 0.00 0.00 0.00 0.00 0.00 0.00 0.00 0.00 0.00 0.00 0.00 0.00 0.00 0.01 0.01 0.01 0.01 0.00 0.00 0.01 0.03 0.03 0.01 0.00 0.00 0.00 0.00 0.00 0.01 0.02 0.02 0.01 0.01 0.01 0.01 0.01 0.00 0.01
0.00 0.00 0.00 0.00 0.00 0.00 0.00 0.00 0.00 0.00 0.00 0.00 0.00 0.00 0.00 0.00 0.01 0.00 0.00 0.00 0.00 0.00 0.00 0.00 0.01 0.01 0.01 0.01 0.01 0.01 0.00 0.00 0.00 0.01 0.01 0.01 0.02 0.03 0.02 0.01 0.00 0.00 0.00 0.00 0.00 0.00 0.00 0.00 0.00 0.00 0.00 0.01 0.00 0.00
0.00 0.00 0.00 0.00 0.00 0.00 0.01 0.01 0.01 0.00 0.00 0.00 0.00 0.00 0.00 0.01 0.01 0.01 0.00 0.00 0.00 0.00 0.00 0.00 0.00 0.01 0.02 0.02 0.03 0.04 0.02 0.01 0.01 0.00 0.00 0.01 0.00 0.01 0.01 0.01 0.02 0.01 0.01 0.01 0.01 0.01 0.01 0.01 0.01 0.00 0.00 0.01 0.01 0.00
0.00 0.00 0.00 0.00 0.01 0.01 0.01 0.01 0.01 0.01 0.00 0.00 0.00 0.00 0.01 0.01 0.01 0.01 0.00 0.01 0.00 0.00 0.01 0.01 0.01 0.01 0.01 0.01 0.01 0.01 0.02 0.02 0.01 0.01 0.01 0.02 0.01 0.00 0.00 0.00 0.01 0.02 0.02 0.01 0.01 0.01 0.00 0.00 0.00 0.00 0.00 0.00 0.00 0.00
0.01 0.00 0.02 0.02 0.01 0.01 0.01 0.01 0.00 0.00 0.00 0.00 0.01 0.01 0.01 0.01 0.01 0.02 0.01 0.02 0.02 0.03 0.03 0.02 0.02 0.02 0.01 0.01 0.01 0.00 0.00 0.00 0.00 0.00 0.01 0.01 0.01 0.02 0.02 0.01 0.01 0.02 0.02 0.02 0.01 0.01 0.00 0.00 0.00 0.00 0.00 0.00 0.00 0.00
0.03 0.02 0.02 0.02 0.01 0.00 0.00 0.01 0.01 0.01 0.01 0.01 0.01 0.01 0.00 0.00 0.01 0.03 0.02 0.02 0.03 0.03 0.04 0.04 0.05 0.05 0.04 0.03 0.03 0.03 0.01 0.00 0.00 0.00 0.00 0.01 0.02 0.03 0.04 0.04 0.03 0.03 0.02 0.01 0.00 0.00 0.00 0.00 0.00 0.00 0.00 0.00 0.00 0.00

GFSWCAN_prec_precacc24_162.txt.gz
Total_Precipitation_Accumulation
0.83 1.19 1.35 0.74 0.40 0.26 0.19 0.18 0.18 0.19 0.17 0.19 0.20 0.21 0.26 0.27 0.33 0.49 0.30 0.23 0.44 0.56 0.25 0.51 0.56 0.29 0.21 0.10 0.03 0.03 0.11 0.13 0.22 0.22 0.15 0.11 0.05 0.01 0.00 0.00 0.00 0.00 0.00 0.00 0.01 0.06 0.02 0.00 0.00 0.00 0.01 0.01 0.02 0.04
0.88 1.34 1.52 0.77 0.42 0.31 0.22 0.17 0.16 0.19 0.18 0.16 0.15 0.20 0.20 0.18 0.25 0.41 0.36 0.26 0.31 0.66 0.42 0.24 0.41 0.27 0.26 0.22 0.19 0.10 0.03 0.02 0.02 0.04 0.02 0.00 0.01 0.01 0.01 0.01 0.00 0.00 0.00 0.01 0.02 0.02 0.00 0.00 0.00 0.00 0.00 0.00 0.01 0.01
0.75 1.46 1.42 0.70 0.43 0.29 0.24 0.20 0.18 0.16 0.17 0.16 0.16 0.14 0.13 0.12 0.16 0.29 0.32 0.36 0.31 0.46 0.60 0.37 0.29 0.25 0.15 0.12 0.17 0.32 0.12 0.02 0.00 0.01 0.01 0.01 0.00 0.00 0.00 0.00 0.00 0.00 0.00 0.00 0.00 0.00 0.00 0.00 0.00 0.00 0.00 0.00 0.00 0.00
0.83 1.46 1.27 0.63 0.35 0.24 0.21 0.19 0.18 0.15 0.16 0.20 0.18 0.10 0.09 0.09 0.12 0.22 0.29 0.32 0.32 0.29 0.49 0.45 0.32 0.30 0.20 0.16 0.10 0.15 0.11 0.11 0.03 0.01 0.01 0.01 0.00 0.00 0.00 0.00 0.00 0.00 0.00 0.00 0.00 0.00 0.00 0.00 0.00 0.00 0.00 0.00 0.00 0.00
1.00 1.28 1.02 0.59 0.30 0.25 0.21 0.16 0.16 0.19 0.21 0.20 0.16 0.11 0.08 0.10 0.16 0.23 0.23 0.25 0.32 0.34 0.23 0.21 0.36 0.30 0.32 0.35 0.15 0.08 0.11 0.25 0.19 0.04 0.01 0.00 0.00 0.00 0.00 0.00 0.00 0.00 0.00 0.00 0.01 0.00 0.00 0.00 0.00 0.00 0.00 0.00 0.00 0.00
1.14 1.16 0.84 0.50 0.35 0.29 0.21 0.18 0.20 0.25 0.22 0.17 0.12 0.09 0.09 0.11 0.18 0.42 0.71 0.34 0.31 0.36 0.31 0.39 0.38 0.41 0.46 0.42 0.25 0.11 0.16 0.18 0.23 0.14 0.03 0.00 0.00 0.00 0.00 0.00 0.00 0.00 0.00 0.00 0.00 0.00 0.00 0.00 0.00 0.00 0.00 0.00 0.00 0.00
1.11 1.17 0.96 0.65 0.41 0.31 0.22 0.22 0.25 0.25 0.21 0.17 0.12 0.11 0.11 0.13 0.13 0.26 0.35 0.15 0.12 0.21 0.39 0.34 0.37 0.52 0.43 0.37 0.34 0.16 0.15 0.09 0.06 0.07 0.02 0.01 0.00 0.00 0.00 0.00 0.00 0.00 0.00 0.00 0.00 0.00 0.00 0.00 0.00 0.00 0.00 0.00 0.00 0.00
1.09 1.01 0.92 0.91 0.45 0.29 0.25 0.26 0.26 0.21 0.16 0.15 0.16 0.16 0.20 0.25 0.19 0.12 0.12 0.07 0.02 0.17 0.16 0.27 0.33 0.47 0.33 0.29 0.25 0.09 0.06 0.02 0.00 0.00 0.00 0.00 0.00 0.00 0.00 0.00 0.00 0.00 0.00 0.00 0.00 0.00 0.00 0.00 0.00 0.00 0.00 0.00 0.00 0.00
0.99 0.82 0.74 0.80 0.55 0.32 0.25 0.20 0.16 0.15 0.16 0.16 0.21 0.26 0.40 0.31 0.19 0.16 0.21 0.16 0.02 0.13 0.15 0.18 0.21 0.29 0.15 0.07 0.04 0.02 0.00 0.00 0.00 0.00 0.00 0.00 0.00 0.00 0.00 0.00 0.00 0.00 0.00 0.00 0.00 0.00 0.00 0.00 0.00 0.00 0.00 0.00 0.00 0.00
0.63 0.52 0.47 0.55 0.56 0.27 0.18 0.14 0.13 0.18 0.14 0.17 0.32 0.47 0.54 0.18 0.12 0.42 0.56 0.43 0.13 0.03 0.03 0.08 0.12 0.08 0.03 0.01 0.01 0.00 0.00 0.00 0.00 0.00 0.00 0.00 0.01 0.00 0.00 0.00 0.00 0.00 0.00 0.00 0.00 0.00 0.00 0.00 0.00 0.00 0.00 0.00 0.00 0.00
0.44 0.36 0.30 0.34 0.33 0.16 0.11 0.10 0.15 0.13 0.14 0.12 0.17 0.22 0.10 0.14 0.23 0.45 0.37 0.22 0.09 0.01 0.00 0.01 0.04 0.01 0.00 0.00 0.00 0.00 0.00 0.00 0.00 0.00 0.01 0.00 0.01 0.00 0.00 0.00 0.00 0.00 0.00 0.00 0.00 0.00 0.00 0.00 0.00 0.00 0.00 0.00 0.00 0.00
0.33 0.30 0.27 0.25 0.19 0.14 0.12 0.11 0.11 0.07 0.04 0.02 0.10 0.13 0.12 0.20 0.16 0.16 0.09 0.03 0.01 0.00 0.00 0.00 0.00 0.00 0.00 0.00 0.00 0.00 0.00 0.00 0.01 0.01 0.01 0.01 0.00 0.00 0.00 0.00 0.00 0.00 0.00 0.00 0.00 0.00 0.00 0.00 0.00 0.00 0.00 0.00 0.00 0.00
0.28 0.25 0.22 0.19 0.15 0.13 0.11 0.10 0.04 0.01 0.03 0.05 0.02 0.03 0.09 0.07 0.01 0.02 0.01 0.00 0.00 0.00 0.00 0.00 0.00 0.00 0.00 0.00 0.00 0.00 0.00 0.00 0.00 0.00 0.00 0.00 0.00 0.00 0.00 0.00 0.00 0.00 0.00 0.00 0.00 0.00 0.00 0.00 0.00 0.00 0.00 0.00 0.00 0.00
0.20 0.21 0.20 0.18 0.13 0.09 0.06 0.03 0.01 0.02 0.02 0.02 0.01 0.01 0.00 0.00 0.00 0.00 0.00 0.00 0.00 0.00 0.00 0.00 0.00 0.00 0.00 0.00 0.00 0.00 0.00 0.00 0.00 0.00 0.00 0.00 0.00 0.00 0.00 0.00 0.00 0.00 0.00 0.00 0.00 0.00 0.00 0.00 0.00 0.00 0.00 0.00 0.00 0.00
0.09 0.10 0.09 0.06 0.04 0.03 0.02 0.02 0.01 0.00 0.00 0.00 0.00 0.00 0.01 0.01 0.01 0.00 0.00 0.00 0.00 0.00 0.00 0.00 0.00 0.00 0.00 0.00 0.00 0.00 0.00 0.00 0.00 0.00 0.01 0.00 0.00 0.00 0.00 0.00 0.00 0.00 0.00 0.00 0.00 0.00 0.00 0.00 0.00 0.00 0.00 0.00 0.00 0.00
0.10 0.10 0.07 0.06 0.05 0.02 0.01 0.01 0.00 0.00 0.00 0.00 0.04 0.07 0.07 0.04 0.03 0.01 0.01 0.01 0.01 0.00 0.00 0.00 0.00 0.00 0.00 0.00 0.00 0.00 0.00 0.00 0.00 0.01 0.00 0.00 0.00 0.00 0.01 0.01 0.00 0.00 0.00 0.00 0.00 0.00 0.00 0.00 0.00 0.00 0.00 0.00 0.00 0.00
0.13 0.15 0.12 0.06 0.01 0.01 0.01 0.00 0.00 0.00 0.00 0.02 0.09 0.12 0.08 0.07 0.06 0.03 0.01 0.00 0.00 0.01 0.00 0.00 0.00 0.00 0.00 0.00 0.00 0.00 0.00 0.01 0.00 0.00 0.00 0.00 0.00 0.00 0.00 0.00 0.00 0.00 0.00 0.00 0.00 0.00 0.00 0.00 0.00 0.00 0.01 0.00 0.00 0.00
0.07 0.11 0.05 0.01 0.00 0.00 0.00 0.00 0.00 0.00 0.02 0.08 0.13 0.16 0.06 0.11 0.05 0.02 0.00 0.00 0.01 0.00 0.00 0.00 0.00 0.00 0.00 0.00 0.00 0.00 0.00 0.01 0.00 0.00 0.00 0.00 0.00 0.00 0.00 0.00 0.00 0.00 0.00 0.00 0.00 0.00 0.00 0.00 0.00 0.00 0.00 0.00 0.00 0.00
0.13 0.08 0.01 0.00 0.00 0.00 0.00 0.00 0.00 0.02 0.08 0.11 0.16 0.10 0.06 0.11 0.04 0.02 0.00 0.00 0.00 0.00 0.00 0.00 0.00 0.00 0.00 0.01 0.00 0.00 0.00 0.00 0.01 0.01 0.01 0.01 0.00 0.00 0.00 0.00 0.00 0.00 0.00 0.00 0.00 0.00 0.00 0.00 0.01 0.00 0.00 0.00 0.01 0.01
0.21 0.12 0.03 0.00 0.00 0.00 0.00 0.00 0.00 0.00 0.04 0.09 0.10 0.06 0.04 0.05 0.02 0.00 0.00 0.00 0.00 0.00 0.00 0.00 0.01 0.01 0.01 0.00 0.00 0.00 0.00 0.00 0.00 0.01 0.02 0.02 0.01 0.00 0.00 0.00 0.00 0.00 0.00 0.01 0.02 0.00 0.00 0.00 0.00 0.00 0.00 0.00 0.02 0.03
0.38 0.28 0.05 0.00 0.00 0.00 0.00 0.00 0.00 0.00 0.02 0.07 0.07 0.02 0.02 0.00 0.00 0.00 0.00 0.00 0.00 0.00 0.01 0.01 0.01 0.01 0.01 0.00 0.00 0.00 0.00 0.00 0.00 0.00 0.00 0.02 0.02 0.01 0.01 0.01 0.00 0.00 0.01 0.01 0.01 0.00 0.00 0.01 0.00 0.00 0.01 0.02 0.01 0.01
0.28 0.22 0.07 0.00 0.00 0.00 0.00 0.00 0.00 0.00 0.01 0.03 0.01 0.00 0.00 0.00 0.00 0.00 0.00 0.00 0.00 0.01 0.00 0.00 0.01 0.01 0.01 0.00 0.01 0.00 0.00 0.00 0.00 0.00 0.00 0.00 0.02 0.02 0.03 0.02 0.01 0.02 0.01 0.01 0.01 0.00 0.01 0.00 0.00 0.00 0.02 0.02 0.01 0.01
0.18 0.13 0.03 0.00 0.00 0.00 0.00 0.00 0.00 0.00 0.00 0.00 0.00 0.00 0.00 0.00 0.00 0.00 0.00 0.00 0.01 0.01 0.01 0.00 0.00 0.00 0.01 0.01 0.01 0.00 0.00 0.00 0.00 0.00 0.00 0.01 0.01 0.01 0.02 0.02 0.01 0.01 0.01 0.01 0.00 0.00 0.00 0.00 0.00 0.01 0.01 0.01 0.02 0.03
0.12 0.11 0.03 0.00 0.00 0.01 0.00 0.00 0.00 0.00 0.00 0.00 0.00 0.00 0.00 0.00 0.00 0.00 0.00 0.00 0.00 0.00 0.00 0.01 0.01 0.01 0.01 0.01 0.01 0.00 0.00 0.00 0.00 0.01 0.01 0.01 0.03 0.04 0.01 0.01 0.01 0.00 0.00 0.00 0.00 0.01 0.01 0.01 0.01 0.01 0.01 0.01 0.01 0.02
0.09 0.13 0.01 0.00 0.00 0.00 0.00 0.00 0.00 0.00 0.00 0.00 0.00 0.00 0.00 0.00 0.00 0.00 0.00 0.00 0.00 0.00 0.00 0.01 0.01 0.00 0.00 0.00 0.01 0.01 0.00 0.00 0.00 0.01 0.02 0.01 0.01 0.03 0.04 0.03 0.02 0.01 0.01 0.01 0.02 0.02 0.02 0.03 0.03 0.03 0.01 0.01 0.01 0.00
0.06 0.06 0.00 0.00 0.00 0.00 0.00 0.00 0.00 0.00 0.00 0.00 0.00 0.00 0.00 0.00 0.00 0.00 0.00 0.00 0.00 0.00 0.00 0.01 0.01 0.00 0.00 0.00 0.00 0.00 0.00 0.00 0.00 0.01 0.02 0.01 0.00 0.01 0.01 0.02 0.04 0.04 0.01 0.01 0.01 0.02 0.02 0.03 0.03 0.03 0.02 0.01 0.01 0.01
0.00 0.00 0.00 0.00 0.00 0.00 0.00 0.00 0.00 0.00 0.00 0.00 0.00 0.00 0.00 0.00 0.00 0.00 0.00 0.00 0.00 0.00 0.00 0.00 0.00 0.00 0.00 0.00 0.01 0.00 0.00 0.00 0.01 0.00 0.00 0.01 0.01 0.00 0.00 0.00 0.00 0.00 0.00 0.01 0.01 0.01 0.02 0.02 0.02 0.02 0.03 0.02 0.01 0.01
0.00 0.00 0.00 0.00 0.00 0.00 0.00 0.00 0.00 0.00 0.00 0.00 0.00 0.00 0.00 0.00 0.00 0.00 0.00 0.00 0.00 0.00 0.00 0.00 0.00 0.00 0.00 0.00 0.00 0.01 0.01 0.01 0.01 0.00 0.01 0.01 0.03 0.03 0.01 0.00 0.00 0.00 0.00 0.00 0.01 0.02 0.03 0.02 0.01 0.01 0.02 0.01 0.01 0.00
0.00 0.00 0.00 0.00 0.00 0.00 0.00 0.00 0.00 0.00 0.00 0.00 0.00 0.00 0.00 0.01 0.01 0.00 0.00 0.00 0.00 0.00 0.00 0.00 0.01 0.01 0.01 0.01 0.01 0.01 0.00 0.00 0.01 0.01 0.01 0.01 0.02 0.03 0.02 0.01 0.00 0.00 0.00 0.00 0.00 0.01 0.01 0.01 0.01 0.01 0.01 0.01 0.01 0.01
0.00 0.00 0.00 0.00 0.00 0.00 0.01 0.01 0.01 0.01 0.00 0.00 0.00 0.00 0.00 0.01 0.02 0.01 0.00 0.00 0.00 0.00 0.00 0.00 0.00 0.01 0.01 0.02 0.03 0.04 0.02 0.01 0.01 0.01 0.00 0.01 0.00 0.01 0.01 0.02 0.02 0.01 0.01 0.01 0.01 0.02 0.03 0.02 0.01 0.01 0.01 0.01 0.01 0.01
0.00 0.00 0.00 0.00 0.01 0.01 0.01 0.01 0.01 0.01 0.01 0.01 0.01 0.00 0.01 0.01 0.02 0.01 0.01 0.01 0.00 0.00 0.01 0.01 0.01 0.01 0.01 0.01 0.01 0.02 0.02 0.02 0.01 0.01 0.01 0.02 0.01 0.00 0.00 0.00 0.01 0.02 0.04 0.04 0.02 0.01 0.01 0.01 0.01 0.01 0.01 0.01 0.00 0.00
0.01 0.00 0.02 0.02 0.01 0.01 0.01 0.01 0.00 0.00 0.00 0.01 0.01 0.01 0.01 0.01 0.01 0.02 0.02 0.02 0.02 0.02 0.03 0.03 0.02 0.02 0.01 0.01 0.01 0.00 0.00 0.00 0.00 0.00 0.01 0.01 0.01 0.02 0.02 0.01 0.01 0.02 0.03 0.04 0.03 0.03 0.02 0.01 0.02 0.01 0.01 0.01 0.00 0.00
0.02 0.02 0.02 0.02 0.01 0.01 0.00 0.00 0.00 0.01 0.00 0.00 0.01 0.01 0.01 0.01 0.01 0.03 0.02 0.02 0.04 0.04 0.04 0.04 0.05 0.05 0.04 0.03 0.04 0.03 0.01 0.00 0.00 0.00 0.00 0.01 0.02 0.04 0.05 0.05 0.04 0.03 0.02 0.02 0.02 0.02 0.02 0.02 0.02 0.01 0.01 0.00 0.00 0.00

GFSWCAN_prec_precacc24_165.txt.gz
Total_Precipitation_Accumulation
0.58 0.79 0.88 0.33 0.20 0.18 0.15 0.13 0.12 0.13 0.09 0.13 0.18 0.21 0.26 0.31 0.38 0.52 0.31 0.24 0.48 0.61 0.26 0.52 0.59 0.31 0.24 0.17 0.12 0.08 0.17 0.17 0.23 0.27 0.24 0.18 0.08 0.01 0.00 0.00 0.00 0.01 0.02 0.04 0.08 0.14 0.04 0.00 0.00 0.00 0.01 0.00 0.01 0.01
0.71 1.08 1.21 0.50 0.30 0.27 0.23 0.17 0.14 0.18 0.16 0.15 0.16 0.23 0.23 0.23 0.31 0.46 0.37 0.28 0.33 0.71 0.43 0.25 0.41 0.27 0.27 0.23 0.23 0.20 0.19 0.05 0.04 0.06 0.05 0.02 0.05 0.05 0.02 0.01 0.00 0.01 0.01 0.02 0.03 0.03 0.00 0.00 0.00 0.00 0.00 0.00 0.00 0.00
0.64 1.32 1.26 0.56 0.36 0.30 0.27 0.23 0.21 0.17 0.20 0.18 0.16 0.15 0.16 0.16 0.21 0.33 0.32 0.37 0.34 0.51 0.62 0.37 0.30 0.25 0.15 0.13 0.18 0.38 0.17 0.05 0.04 0.04 0.04 0.04 0.02 0.00 0.02 0.02 0.00 0.00 0.00 0.01 0.01 0.00 0.00 0.00 0.00 0.00 0.00 0.00 0.00 0.00
0.77 1.38 1.18 0.56 0.34 0.25 0.22 0.21 0.18 0.16 0.16 0.22 0.18 0.10 0.11 0.12 0.18 0.25 0.29 0.32 0.33 0.35 0.52 0.45 0.32 0.30 0.20 0.16 0.11 0.15 0.11 0.12 0.08 0.06 0.08 0.05 0.01 0.00 0.00 0.00 0.00 0.00 0.00 0.00 0.00 0.00 0.00 0.00 0.00 0.00 0.00 0.00 0.00 0.00
0.93 1.21 0.96 0.56 0.31 0.26 0.22 0.16 0.16 0.20 0.21 0.20 0.16 0.11 0.08 0.11 0.19 0.26 0.23 0.25 0.32 0.43 0.35 0.23 0.36 0.30 0.32 0.35 0.15 0.09 0.12 0.27 0.37 0.19 0.10 0.04 0.01 0.00 0.00 0.00 0.00 0.00 0.00 0.00 0.01 0.00 0.00 0.00 0.00 0.00 0.00 0.00 0.00 0.00
1.07 1.10 0.80 0.49 0.36 0.30 0.22 0.18 0.20 0.25 0.23 0.17 0.13 0.10 0.11 0.12 0.20 0.44 0.71 0.34 0.31 0.41 0.38 0.40 0.38 0.41 0.46 0.42 0.26 0.12 0.18 0.28 0.49 0.37 0.14 0.02 0.00 0.00 0.01 0.00 0.00 0.00 0.00 0.00 0.00 0.00 0.00 0.00 0.00 0.00 0.00 0.00 0.00 0.00
1.07 1.13 0.94 0.64 0.41 0.31 0.22 0.22 0.25 0.25 0.21 0.17 0.12 0.15 0.15 0.18 0.14 0.26 0.35 0.22 0.16 0.32 0.68 0.42 0.38 0.52 0.43 0.38 0.35 0.19 0.23 0.22 0.29 0.39 0.22 0.05 0.00 0.00 0.00 0.00 0.00 0.00 0.00 0.00 0.00 0.00 0.00 0.00 0.00 0.00 0.00 0.00 0.00 0.00
1.06 0.99 0.91 0.91 0.45 0.29 0.25 0.26 0.26 0.21 0.17 0.16 0.17 0.20 0.24 0.30 0.22 0.13 0.15 0.12 0.09 0.23 0.28 0.34 0.33 0.48 0.37 0.36 0.37 0.25 0.27 0.21 0.19 0.19 0.15 0.09 0.07 0.03 0.01 0.00 0.00 0.00 0.00 0.00 0.00 0.00 0.00 0.00 0.00 0.00 0.00 0.00 0.00 0.00
1.03 0.84 0.75 0.81 0.56 0.32 0.26 0.20 0.16 0.15 0.17 0.19 0.26 0.37 0.47 0.35 0.21 0.16 0.23 0.28 0.13 0.18 0.18 0.19 0.22 0.37 0.36 0.29 0.24 0.19 0.11 0.08 0.05 0.03 0.02 0.03 0.06 0.04 0.00 0.00 0.00 0.00 0.00 0.00 0.00 0.00 0.00 0.00 0.00 0.00 0.00 0.00 0.00 0.00
0.77 0.60 0.54 0.62 0.61 0.28 0.19 0.14 0.13 0.19 0.20 0.30 0.64 0.67 0.56 0.18 0.12 0.43 0.72 0.88 0.31 0.09 0.06 0.12 0.21 0.23 0.27 0.15 0.09 0.04 0.01 0.01 0.01 0.00 0.00 0.00 0.01 0.00 0.00 0.00 0.00 0.00 0.00 0.00 0.00 0.00 0.00 0.00 0.00 0.00 0.00 0.00 0.00 0.00
0.49 0.40 0.35 0.46 0.47 0.19 0.12 0.10 0.16 0.25 0.35 0.37 0.38 0.24 0.12 0.15 0.26 0.47 0.47 0.38 0.23 0.05 0.01 0.02 0.14 0.16 0.11 0.04 0.01 0.01 0.01 0.00 0.00 0.00 0.00 0.00 0.01 0.00 0.00 0.00 0.00 0.00 0.00 0.00 0.00 0.00 0.00 0.00 0.00 0.00 0.00 0.00 0.00 0.00
0.34 0.31 0.30 0.42 0.32 0.16 0.12 0.14 0.25 0.29 0.17 0.05 0.11 0.15 0.14 0.23 0.18 0.17 0.10 0.05 0.04 0.01 0.00 0.00 0.04 0.06 0.01 0.00 0.01 0.01 0.00 0.00 0.01 0.00 0.00 0.01 0.00 0.00 0.00 0.00 0.00 0.00 0.00 0.00 0.00 0.00 0.00 0.00 0.00 0.00 0.00 0.00 0.00 0.00
0.29 0.27 0.27 0.27 0.19 0.15 0.14 0.20 0.19 0.05 0.04 0.06 0.04 0.05 0.10 0.09 0.03 0.03 0.01 0.01 0.00 0.00 0.00 0.00 0.00 0.00 0.00 0.00 0.00 0.00 0.00 0.00 0.00 0.00 0.00 0.00 0.00 0.00 0.00 0.00 0.00 0.00 0.00 0.00 0.00 0.00 0.00 0.00 0.00 0.00 0.00 0.00 0.00 0.00
0.21 0.22 0.20 0.17 0.14 0.12 0.13 0.11 0.04 0.03 0.04 0.05 0.03 0.01 0.03 0.00 0.00 0.00 0.00 0.00 0.00 0.00 0.00 0.00 0.00 0.00 0.00 0.00 0.00 0.00 0.00 0.00 0.00 0.00 0.00 0.00 0.00 0.00 0.00 0.00 0.00 0.00 0.00 0.00 0.00 0.00 0.00 0.00 0.00 0.00 0.00 0.00 0.00 0.00
0.10 0.09 0.07 0.06 0.04 0.04 0.04 0.03 0.01 0.02 0.02 0.01 0.01 0.00 0.01 0.01 0.01 0.00 0.00 0.00 0.00 0.00 0.00 0.00 0.00 0.00 0.00 0.00 0.00 0.00 0.00 0.00 0.00 0.00 0.01 0.00 0.00 0.00 0.00 0.00 0.00 0.00 0.00 0.00 0.00 0.00 0.00 0.00 0.00 0.00 0.00 0.00 0.00 0.00
0.07 0.06 0.05 0.04 0.04 0.03 0.02 0.02 0.01 0.02 0.00 0.00 0.04 0.07 0.07 0.04 0.03 0.01 0.01 0.01 0.01 0.00 0.00 0.00 0.00 0.00 0.00 0.00 0.00 0.00 0.00 0.00 0.00 0.01 0.00 0.00 0.00 0.00 0.00 0.00 0.00 0.00 0.00 0.00 0.00 0.00 0.00 0.00 0.00 0.00 0.00 0.00 0.00 0.00
0.03 0.09 0.08 0.04 0.01 0.02 0.02 0.00 0.00 0.00 0.00 0.02 0.09 0.11 0.08 0.06 0.06 0.03 0.01 0.00 0.00 0.01 0.00 0.00 0.00 0.00 0.00 0.00 0.00 0.00 0.00 0.01 0.00 0.00 0.00 0.00 0.00 0.00 0.00 0.00 0.00 0.00 0.00 0.00 0.00 0.00 0.00 0.00 0.00 0.00 0.01 0.00 0.00 0.00
0.05 0.07 0.03 0.01 0.01 0.01 0.00 0.00 0.00 0.00 0.02 0.08 0.13 0.16 0.06 0.11 0.05 0.02 0.00 0.00 0.01 0.00 0.00 0.00 0.00 0.00 0.00 0.00 0.00 0.00 0.00 0.01 0.00 0.00 0.00 0.00 0.00 0.00 0.00 0.00 0.00 0.00 0.00 0.00 0.00 0.00 0.00 0.00 0.00 0.00 0.00 0.00 0.00 0.00
0.01 0.00 0.00 0.00 0.00 0.00 0.00 0.00 0.00 0.02 0.08 0.11 0.17 0.11 0.06 0.11 0.04 0.02 0.00 0.00 0.00 0.00 0.00 0.00 0.00 0.00 0.00 0.01 0.00 0.00 0.00 0.00 0.01 0.01 0.01 0.00 0.00 0.00 0.00 0.00 0.00 0.00 0.00 0.00 0.00 0.00 0.00 0.00 0.01 0.00 0.00 0.00 0.01 0.01
0.00 0.00 0.00 0.00 0.00 0.00 0.00 0.00 0.00 0.00 0.04 0.10 0.11 0.06 0.04 0.05 0.02 0.00 0.00 0.00 0.00 0.00 0.00 0.00 0.01 0.01 0.01 0.00 0.00 0.00 0.00 0.00 0.00 0.01 0.02 0.02 0.01 0.00 0.00 0.00 0.00 0.00 0.00 0.01 0.02 0.00 0.00 0.00 0.00 0.00 0.00 0.00 0.02 0.03
0.05 0.02 0.00 0.00 0.00 0.00 0.00 0.00 0.00 0.00 0.02 0.08 0.08 0.02 0.02 0.00 0.02 0.01 0.00 0.00 0.00 0.00 0.01 0.01 0.01 0.01 0.01 0.01 0.00 0.00 0.00 0.00 0.00 0.00 0.00 0.02 0.02 0.01 0.01 0.01 0.00 0.00 0.01 0.01 0.01 0.00 0.00 0.01 0.00 0.00 0.01 0.02 0.01 0.01
0.05 0.01 0.00 0.00 0.00 0.00 0.00 0.00 0.00 0.00 0.01 0.04 0.01 0.00 0.01 0.00 0.01 0.00 0.00 0.00 0.00 0.01 0.00 0.00 0.01 0.01 0.01 0.00 0.00 0.00 0.00 0.00 0.00 0.00 0.00 0.00 0.02 0.02 0.03 0.02 0.01 0.02 0.01 0.01 0.01 0.00 0.01 0.00 0.00 0.00 0.02 0.02 0.01 0.01
0.05 0.02 0.00 0.00 0.00 0.00 0.00 0.00 0.00 0.00 0.00 0.00 0.00 0.00 0.00 0.00 0.00 0.00 0.00 0.00 0.01 0.01 0.01 0.00 0.00 0.00 0.01 0.01 0.00 0.00 0.00 0.00 0.00 0.00 0.00 0.01 0.01 0.01 0.02 0.02 0.01 0.01 0.01 0.01 0.00 0.00 0.00 0.00 0.00 0.01 0.01 0.01 0.02 0.03
0.05 0.05 0.01 0.00 0.00 0.00 0.00 0.00 0.00 0.00 0.00 0.00 0.00 0.00 0.00 0.00 0.00 0.00 0.00 0.00 0.00 0.00 0.00 0.00 0.00 0.00 0.01 0.01 0.00 0.00 0.00 0.00 0.00 0.01 0.01 0.01 0.03 0.04 0.01 0.01 0.01 0.00 0.00 0.00 0.00 0.01 0.01 0.01 0.01 0.01 0.02 0.03 0.02 0.03
0.06 0.07 0.00 0.00 0.00 0.00 0.00 0.00 0.00 0.00 0.00 0.00 0.00 0.00 0.00 0.00 0.00 0.00 0.00 0.00 0.00 0.00 0.00 0.00 0.00 0.00 0.00 0.00 0.00 0.00 0.00 0.00 0.00 0.01 0.02 0.01 0.01 0.02 0.04 0.03 0.03 0.02 0.01 0.02 0.02 0.02 0.02 0.03 0.03 0.03 0.02 0.03 0.03 0.02
0.03 0.03 0.00 0.00 0.00 0.00 0.00 0.00 0.00 0.00 0.00 0.00 0.00 0.00 0.00 0.00 0.00 0.00 0.00 0.00 0.00 0.00 0.00 0.00 0.00 0.00 0.00 0.00 0.00 0.00 0.00 0.00 0.00 0.01 0.02 0.01 0.00 0.01 0.01 0.02 0.04 0.04 0.01 0.01 0.02 0.02 0.03 0.03 0.03 0.04 0.03 0.03 0.03 0.02
0.00 0.00 0.00 0.00 0.00 0.00 0.00 0.00 0.00 0.00 0.00 0.00 0.00 0.00 0.00 0.00 0.00 0.00 0.00 0.00 0.00 0.00 0.00 0.00 0.00 0.00 0.00 0.00 0.01 0.00 0.00 0.00 0.01 0.00 0.00 0.01 0.01 0.00 0.00 0.00 0.00 0.00 0.00 0.01 0.01 0.01 0.02 0.02 0.02 0.03 0.04 0.04 0.03 0.02
0.00 0.00 0.00 0.00 0.00 0.00 0.00 0.00 0.00 0.00 0.00 0.00 0.00 0.00 0.00 0.00 0.00 0.00 0.00 0.00 0.00 0.00 0.00 0.00 0.00 0.00 0.00 0.00 0.00 0.00 0.00 0.01 0.01 0.00 0.01 0.01 0.02 0.02 0.01 0.00 0.00 0.00 0.00 0.00 0.01 0.03 0.03 0.02 0.02 0.02 0.03 0.03 0.03 0.02
0.00 0.00 0.00 0.00 0.00 0.00 0.00 0.00 0.00 0.00 0.00 0.00 0.00 0.00 0.00 0.01 0.02 0.01 0.00 0.00 0.00 0.00 0.00 0.00 0.01 0.01 0.01 0.01 0.01 0.01 0.00 0.00 0.01 0.01 0.01 0.01 0.02 0.03 0.02 0.01 0.00 0.00 0.00 0.00 0.00 0.01 0.02 0.03 0.03 0.03 0.03 0.03 0.03 0.02
0.00 0.00 0.00 0.00 0.00 0.00 0.01 0.01 0.01 0.01 0.01 0.01 0.00 0.00 0.00 0.01 0.02 0.02 0.01 0.00 0.00 0.00 0.00 0.00 0.01 0.01 0.01 0.02 0.03 0.04 0.02 0.01 0.01 0.01 0.00 0.01 0.00 0.01 0.01 0.02 0.02 0.01 0.02 0.01 0.02 0.03 0.03 0.02 0.02 0.02 0.02 0.02 0.02 0.01
0.00 0.00 0.00 0.00 0.01 0.01 0.01 0.01 0.01 0.01 0.01 0.01 0.01 0.01 0.01 0.01 0.02 0.02 0.02 0.02 0.00 0.00 0.01 0.01 0.01 0.01 0.01 0.01 0.01 0.02 0.02 0.02 0.01 0.01 0.01 0.02 0.01 0.00 0.00 0.00 0.01 0.03 0.04 0.05 0.03 0.02 0.01 0.01 0.01 0.01 0.01 0.01 0.01 0.00
0.01 0.00 0.02 0.02 0.01 0.01 0.01 0.01 0.01 0.01 0.01 0.01 0.02 0.02 0.02 0.01 0.01 0.02 0.03 0.03 0.03 0.02 0.03 0.03 0.02 0.02 0.01 0.01 0.01 0.00 0.00 0.00 0.00 0.00 0.01 0.01 0.01 0.02 0.02 0.01 0.01 0.02 0.04 0.05 0.05 0.04 0.03 0.02 0.03 0.02 0.02 0.01 0.01 0.00
0.01 0.02 0.02 0.02 0.01 0.01 0.00 0.01 0.01 0.01 0.01 0.01 0.01 0.02 0.01 0.01 0.02 0.03 0.02 0.03 0.05 0.05 0.05 0.05 0.06 0.05 0.04 0.03 0.04 0.03 0.01 0.00 0.00 0.00 0.00 0.01 0.02 0.04 0.05 0.05 0.04 0.03 0.02 0.02 0.04 0.04 0.04 0.04 0.04 0.03 0.02 0.01 0.01 0.00

GFSWCAN_prec_precacc24_168.txt.gz
Total_Precipitation_Accumulation
0.37 0.36 0.33 0.18 0.15 0.14 0.13 0.12 0.13 0.09 0.04 0.07 0.11 0.15 0.18 0.26 0.41 0.56 0.38 0.29 0.52 0.64 0.27 0.53 0.59 0.35 0.27 0.19 0.14 0.12 0.24 0.20 0.26 0.31 0.29 0.22 0.10 0.02 0.01 0.00 0.00 0.01 0.03 0.06 0.12 0.18 0.05 0.00 0.00 0.00 0.00 0.00 0.00 0.00
0.45 0.60 0.57 0.22 0.21 0.24 0.24 0.17 0.13 0.13 0.08 0.05 0.08 0.13 0.15 0.22 0.34 0.50 0.40 0.31 0.38 0.74 0.45 0.26 0.42 0.28 0.27 0.24 0.24 0.21 0.30 0.19 0.12 0.09 0.06 0.04 0.12 0.11 0.04 0.02 0.00 0.01 0.01 0.03 0.03 0.04 0.00 0.00 0.00 0.00 0.00 0.00 0.00 0.00
0.43 0.90 0.75 0.23 0.18 0.24 0.25 0.22 0.18 0.14 0.14 0.10 0.06 0.08 0.13 0.17 0.24 0.35 0.34 0.41 0.39 0.57 0.66 0.38 0.30 0.25 0.15 0.13 0.18 0.39 0.18 0.14 0.24 0.22 0.12 0.08 0.04 0.02 0.05 0.03 0.01 0.01 0.00 0.01 0.01 0.00 0.00 0.00 0.00 0.00 0.00 0.00 0.00 0.00
0.62 1.16 0.89 0.34 0.23 0.20 0.21 0.19 0.18 0.16 0.13 0.14 0.12 0.08 0.10 0.13 0.21 0.27 0.31 0.34 0.36 0.39 0.57 0.45 0.32 0.30 0.20 0.16 0.11 0.15 0.11 0.12 0.12 0.22 0.26 0.13 0.04 0.01 0.00 0.01 0.01 0.01 0.00 0.00 0.01 0.00 0.01 0.00 0.00 0.00 0.00 0.00 0.00 0.00
0.84 1.09 0.84 0.47 0.26 0.25 0.22 0.18 0.16 0.19 0.18 0.17 0.15 0.11 0.08 0.13 0.25 0.30 0.25 0.25 0.33 0.45 0.38 0.26 0.36 0.30 0.32 0.35 0.15 0.09 0.12 0.28 0.38 0.21 0.12 0.06 0.02 0.01 0.00 0.00 0.00 0.00 0.00 0.00 0.01 0.00 0.01 0.00 0.00 0.00 0.00 0.00 0.00 0.00
0.99 1.03 0.76 0.46 0.34 0.28 0.21 0.18 0.21 0.25 0.22 0.16 0.13 0.12 0.11 0.13 0.23 0.47 0.73 0.34 0.31 0.42 0.39 0.41 0.38 0.41 0.46 0.42 0.26 0.12 0.18 0.30 0.51 0.38 0.15 0.03 0.00 0.01 0.02 0.01 0.00 0.00 0.00 0.01 0.03 0.01 0.00 0.00 0.00 0.00 0.00 0.00 0.00 0.00
1.01 1.09 0.92 0.62 0.38 0.30 0.22 0.22 0.26 0.25 0.21 0.17 0.13 0.17 0.18 0.20 0.16 0.27 0.36 0.26 0.19 0.33 0.70 0.45 0.39 0.52 0.43 0.38 0.36 0.19 0.24 0.26 0.32 0.41 0.24 0.05 0.00 0.01 0.01 0.00 0.00 0.00 0.00 0.01 0.02 0.00 0.00 0.00 0.00 0.00 0.00 0.00 0.00 0.00
1.04 0.97 0.90 0.88 0.44 0.29 0.25 0.27 0.26 0.21 0.17 0.16 0.17 0.24 0.30 0.35 0.26 0.14 0.15 0.24 0.25 0.33 0.37 0.47 0.34 0.48 0.38 0.37 0.39 0.26 0.30 0.27 0.29 0.25 0.18 0.11 0.09 0.05 0.02 0.00 0.00 0.00 0.00 0.00 0.00 0.00 0.00 0.00 0.00 0.00 0.00 0.00 0.00 0.00
1.01 0.84 0.74 0.80 0.55 0.32 0.25 0.20 0.16 0.15 0.17 0.19 0.27 0.43 0.57 0.42 0.24 0.17 0.23 0.29 0.15 0.25 0.32 0.21 0.22 0.38 0.40 0.36 0.33 0.30 0.24 0.23 0.16 0.10 0.06 0.10 0.17 0.11 0.01 0.00 0.00 0.00 0.00 0.00 0.00 0.00 0.00 0.00 0.00 0.00 0.00 0.00 0.00 0.00
0.77 0.60 0.54 0.62 0.61 0.28 0.19 0.14 0.14 0.20 0.20 0.33 0.73 0.91 0.69 0.20 0.13 0.44 0.75 0.93 0.40 0.14 0.10 0.16 0.21 0.25 0.34 0.31 0.25 0.16 0.09 0.09 0.08 0.02 0.03 0.07 0.05 0.01 0.00 0.00 0.00 0.00 0.00 0.00 0.00 0.00 0.00 0.00 0.00 0.00 0.00 0.00 0.00 0.00
0.62 0.47 0.37 0.46 0.47 0.19 0.12 0.10 0.17 0.26 0.39 0.47 0.55 0.34 0.12 0.16 0.29 0.52 0.58 0.59 0.37 0.15 0.02 0.02 0.14 0.19 0.21 0.14 0.08 0.05 0.04 0.02 0.04 0.01 0.04 0.03 0.01 0.00 0.00 0.00 0.00 0.00 0.00 0.00 0.00 0.00 0.00 0.00 0.00 0.00 0.00 0.00 0.00 0.00
0.41 0.40 0.34 0.42 0.32 0.16 0.13 0.14 0.25 0.30 0.19 0.08 0.15 0.18 0.16 0.24 0.22 0.26 0.12 0.08 0.06 0.03 0.00 0.01 0.08 0.14 0.09 0.10 0.09 0.02 0.01 0.00 0.01 0.00 0.02 0.01 0.00 0.00 0.00 0.00 0.00 0.00 0.00 0.00 0.00 0.00 0.00 0.00 0.00 0.00 0.00 0.00 0.00 0.00
0.31 0.31 0.32 0.31 0.20 0.16 0.15 0.21 0.19 0.07 0.06 0.09 0.09 0.07 0.11 0.10 0.05 0.03 0.01 0.01 0.00 0.00 0.00 0.00 0.04 0.03 0.01 0.03 0.03 0.01 0.00 0.00 0.00 0.00 0.00 0.00 0.00 0.00 0.00 0.00 0.00 0.00 0.00 0.00 0.00 0.00 0.00 0.00 0.00 0.00 0.00 0.00 0.00 0.00
0.22 0.25 0.27 0.22 0.15 0.13 0.13 0.12 0.05 0.05 0.07 0.08 0.06 0.02 0.03 0.01 0.00 0.00 0.00 0.00 0.00 0.00 0.00 0.00 0.00 0.00 0.00 0.00 0.00 0.00 0.00 0.00 0.00 0.00 0.00 0.00 0.00 0.00 0.00 0.00 0.00 0.00 0.00 0.00 0.00 0.00 0.00 0.00 0.00 0.00 0.00 0.00 0.00 0.00
0.10 0.12 0.11 0.08 0.05 0.05 0.05 0.03 0.02 0.04 0.04 0.02 0.02 0.01 0.01 0.01 0.01 0.00 0.00 0.00 0.00 0.00 0.00 0.00 0.00 0.00 0.00 0.00 0.00 0.00 0.00 0.00 0.00 0.00 0.01 0.00 0.00 0.00 0.00 0.00 0.00 0.00 0.00 0.00 0.00 0.00 0.00 0.00 0.00 0.00 0.00 0.00 0.00 0.00
0.05 0.05 0.06 0.05 0.04 0.03 0.03 0.03 0.02 0.04 0.02 0.01 0.04 0.06 0.06 0.04 0.02 0.01 0.01 0.01 0.01 0.00 0.00 0.00 0.00 0.00 0.00 0.00 0.00 0.00 0.00 0.00 0.00 0.01 0.00 0.00 0.00 0.00 0.00 0.00 0.00 0.00 0.00 0.00 0.00 0.00 0.00 0.00 0.00 0.00 0.00 0.00 0.00 0.00
0.02 0.10 0.09 0.04 0.02 0.02 0.02 0.01 0.02 0.02 0.00 0.03 0.08 0.11 0.08 0.06 0.06 0.02 0.01 0.00 0.00 0.01 0.00 0.00 0.00 0.00 0.00 0.00 0.00 0.00 0.00 0.01 0.00 0.00 0.00 0.00 0.00 0.00 0.00 0.00 0.00 0.00 0.00 0.00 0.00 0.00 0.00 0.00 0.00 0.00 0.01 0.00 0.00 0.00
0.05 0.09 0.04 0.02 0.02 0.01 0.00 0.00 0.04 0.03 0.02 0.07 0.12 0.14 0.05 0.10 0.05 0.01 0.00 0.00 0.01 0.00 0.00 0.00 0.00 0.00 0.00 0.00 0.00 0.00 0.00 0.01 0.01 0.00 0.00 0.00 0.00 0.00 0.00 0.00 0.00 0.00 0.00 0.00 0.00 0.00 0.00 0.00 0.00 0.00 0.00 0.00 0.00 0.00
0.01 0.01 0.00 0.00 0.00 0.00 0.02 0.02 0.02 0.03 0.08 0.10 0.16 0.10 0.06 0.10 0.04 0.01 0.00 0.00 0.00 0.00 0.00 0.00 0.00 0.00 0.00 0.01 0.00 0.00 0.00 0.00 0.01 0.01 0.01 0.00 0.00 0.00 0.00 0.00 0.00 0.00 0.00 0.00 0.00 0.00 0.00 0.00 0.01 0.00 0.00 0.00 0.01 0.01
0.00 0.00 0.00 0.00 0.00 0.00 0.00 0.00 0.00 0.00 0.04 0.10 0.11 0.06 0.04 0.05 0.02 0.00 0.00 0.00 0.00 0.00 0.00 0.00 0.01 0.01 0.01 0.00 0.01 0.00 0.00 0.00 0.00 0.01 0.02 0.01 0.01 0.00 0.00 0.00 0.00 0.00 0.00 0.01 0.01 0.00 0.00 0.00 0.00 0.00 0.00 0.00 0.02 0.02
0.00 0.00 0.00 0.00 0.00 0.00 0.00 0.00 0.00 0.00 0.02 0.08 0.07 0.02 0.02 0.01 0.02 0.02 0.00 0.00 0.00 0.00 0.01 0.01 0.01 0.01 0.01 0.00 0.00 0.00 0.00 0.00 0.00 0.00 0.00 0.02 0.02 0.01 0.01 0.01 0.00 0.00 0.01 0.01 0.01 0.00 0.00 0.01 0.00 0.00 0.01 0.02 0.01 0.01
0.00 0.00 0.00 0.00 0.00 0.00 0.00 0.00 0.00 0.00 0.01 0.04 0.01 0.00 0.01 0.00 0.01 0.02 0.01 0.00 0.01 0.01 0.00 0.00 0.01 0.01 0.01 0.00 0.01 0.00 0.00 0.00 0.00 0.00 0.00 0.00 0.01 0.02 0.02 0.02 0.01 0.01 0.01 0.01 0.01 0.00 0.01 0.00 0.00 0.00 0.01 0.01 0.01 0.01
0.00 0.00 0.00 0.00 0.00 0.00 0.00 0.00 0.00 0.00 0.00 0.00 0.00 0.00 0.00 0.00 0.00 0.00 0.01 0.01 0.01 0.01 0.01 0.00 0.00 0.00 0.00 0.00 0.00 0.00 0.00 0.00 0.00 0.00 0.00 0.00 0.01 0.01 0.01 0.01 0.01 0.01 0.01 0.01 0.00 0.00 0.00 0.00 0.00 0.01 0.01 0.01 0.01 0.03
0.00 0.00 0.00 0.00 0.00 0.00 0.00 0.00 0.00 0.00 0.00 0.00 0.00 0.00 0.00 0.00 0.00 0.00 0.00 0.00 0.00 0.00 0.00 0.00 0.00 0.00 0.01 0.01 0.00 0.00 0.00 0.00 0.00 0.01 0.01 0.01 0.02 0.03 0.01 0.01 0.01 0.00 0.00 0.00 0.00 0.01 0.01 0.01 0.01 0.01 0.02 0.03 0.02 0.03
0.01 0.01 0.00 0.00 0.00 0.00 0.00 0.00 0.00 0.00 0.00 0.00 0.00 0.00 0.00 0.00 0.00 0.00 0.00 0.00 0.00 0.00 0.00 0.00 0.00 0.00 0.00 0.00 0.00 0.00 0.00 0.00 0.00 0.01 0.02 0.01 0.01 0.02 0.04 0.03 0.03 0.02 0.01 0.02 0.02 0.02 0.02 0.03 0.02 0.03 0.02 0.03 0.03 0.03
0.01 0.00 0.00 0.00 0.00 0.00 0.00 0.00 0.00 0.00 0.00 0.00 0.00 0.00 0.00 0.00 0.00 0.00 0.00 0.00 0.00 0.00 0.00 0.00 0.00 0.00 0.00 0.00 0.00 0.00 0.00 0.00 0.00 0.01 0.02 0.01 0.00 0.01 0.01 0.02 0.04 0.04 0.01 0.01 0.02 0.03 0.03 0.03 0.03 0.03 0.03 0.03 0.03 0.03
0.00 0.00 0.00 0.00 0.00 0.00 0.00 0.00 0.00 0.00 0.00 0.00 0.00 0.00 0.00 0.00 0.00 0.00 0.00 0.00 0.00 0.00 0.00 0.00 0.00 0.00 0.00 0.00 0.00 0.00 0.00 0.00 0.01 0.00 0.00 0.01 0.01 0.00 0.00 0.00 0.00 0.00 0.00 0.01 0.01 0.02 0.02 0.02 0.03 0.03 0.04 0.04 0.04 0.03
0.00 0.00 0.00 0.00 0.00 0.00 0.00 0.00 0.00 0.00 0.00 0.00 0.00 0.00 0.00 0.00 0.00 0.00 0.00 0.00 0.00 0.00 0.00 0.00 0.00 0.00 0.00 0.00 0.00 0.01 0.01 0.01 0.01 0.00 0.00 0.01 0.02 0.02 0.01 0.00 0.00 0.00 0.00 0.00 0.01 0.03 0.04 0.03 0.02 0.03 0.04 0.04 0.04 0.04
0.00 0.00 0.00 0.00 0.00 0.00 0.00 0.00 0.00 0.00 0.01 0.00 0.00 0.00 0.00 0.01 0.02 0.01 0.01 0.00 0.00 0.00 0.00 0.00 0.01 0.01 0.01 0.01 0.01 0.01 0.01 0.01 0.01 0.02 0.01 0.01 0.02 0.03 0.02 0.01 0.00 0.00 0.00 0.00 0.00 0.01 0.02 0.03 0.03 0.04 0.04 0.04 0.04 0.04
0.00 0.00 0.00 0.00 0.00 0.00 0.01 0.01 0.01 0.01 0.01 0.01 0.01 0.01 0.00 0.01 0.03 0.03 0.02 0.01 0.00 0.00 0.00 0.00 0.01 0.01 0.01 0.02 0.03 0.03 0.02 0.02 0.01 0.01 0.00 0.01 0.00 0.01 0.01 0.02 0.02 0.01 0.02 0.01 0.02 0.02 0.03 0.02 0.02 0.02 0.03 0.03 0.03 0.02
0.00 0.00 0.00 0.00 0.01 0.01 0.01 0.01 0.01 0.01 0.02 0.02 0.02 0.02 0.01 0.01 0.02 0.02 0.03 0.03 0.01 0.01 0.01 0.01 0.01 0.01 0.01 0.01 0.01 0.02 0.02 0.02 0.01 0.01 0.01 0.02 0.01 0.00 0.00 0.01 0.01 0.03 0.05 0.05 0.03 0.02 0.01 0.01 0.01 0.01 0.02 0.02 0.01 0.01
0.01 0.01 0.02 0.02 0.01 0.01 0.00 0.01 0.01 0.01 0.01 0.01 0.02 0.02 0.02 0.02 0.01 0.03 0.03 0.04 0.04 0.03 0.03 0.03 0.03 0.02 0.01 0.01 0.01 0.00 0.00 0.00 0.00 0.00 0.01 0.01 0.01 0.02 0.02 0.01 0.01 0.03 0.04 0.05 0.06 0.05 0.03 0.03 0.03 0.03 0.02 0.02 0.02 0.01
0.01 0.02 0.02 0.02 0.01 0.01 0.01 0.01 0.01 0.01 0.01 0.01 0.01 0.02 0.02 0.01 0.02 0.04 0.03 0.04 0.06 0.07 0.07 0.06 0.06 0.05 0.04 0.03 0.04 0.03 0.01 0.00 0.00 0.00 0.00 0.01 0.02 0.04 0.05 0.05 0.04 0.04 0.03 0.03 0.04 0.05 0.05 0.05 0.04 0.04 0.03 0.02 0.02 0.01

GFSWCAN_prec_precacc24_174.txt.gz
Total_Precipitation_Accumulation
0.15 0.17 0.20 0.21 0.19 0.19 0.17 0.16 0.16 0.12 0.08 0.09 0.11 0.13 0.17 0.26 0.37 0.54 0.36 0.32 0.56 0.74 0.32 0.57 0.65 0.43 0.40 0.42 0.30 0.22 0.36 0.35 0.47 0.49 0.39 0.27 0.16 0.04 0.03 0.00 0.04 0.07 0.10 0.13 0.24 0.29 0.10 0.00 0.00 0.00 0.00 0.00 0.00 0.00
0.15 0.19 0.20 0.20 0.21 0.26 0.26 0.19 0.16 0.16 0.12 0.06 0.05 0.09 0.09 0.17 0.29 0.49 0.44 0.30 0.46 0.97 0.56 0.31 0.46 0.29 0.29 0.32 0.49 0.44 0.45 0.32 0.33 0.33 0.20 0.18 0.20 0.16 0.08 0.06 0.02 0.05 0.06 0.04 0.05 0.04 0.00 0.00 0.00 0.00 0.00 0.00 0.00 0.00
0.14 0.16 0.18 0.16 0.17 0.23 0.25 0.25 0.21 0.15 0.15 0.11 0.05 0.04 0.06 0.10 0.20 0.32 0.33 0.50 0.59 0.75 0.65 0.36 0.30 0.25 0.15 0.13 0.27 0.61 0.37 0.29 0.37 0.32 0.24 0.20 0.14 0.06 0.13 0.13 0.07 0.05 0.02 0.09 0.10 0.02 0.00 0.01 0.01 0.05 0.07 0.02 0.00 0.00
0.21 0.21 0.21 0.16 0.13 0.15 0.17 0.17 0.17 0.13 0.09 0.12 0.07 0.02 0.02 0.07 0.18 0.26 0.30 0.44 0.60 0.60 0.55 0.42 0.32 0.30 0.20 0.16 0.11 0.16 0.16 0.23 0.24 0.27 0.38 0.23 0.14 0.07 0.06 0.05 0.08 0.10 0.11 0.11 0.11 0.06 0.05 0.04 0.01 0.02 0.03 0.02 0.01 0.00
0.33 0.32 0.20 0.18 0.11 0.12 0.14 0.13 0.12 0.13 0.10 0.10 0.08 0.04 0.03 0.09 0.25 0.31 0.27 0.30 0.42 0.60 0.48 0.29 0.38 0.30 0.32 0.35 0.15 0.09 0.12 0.30 0.49 0.32 0.18 0.12 0.06 0.06 0.03 0.03 0.03 0.02 0.10 0.14 0.14 0.10 0.07 0.03 0.03 0.02 0.02 0.01 0.01 0.00
0.51 0.42 0.27 0.16 0.10 0.10 0.11 0.11 0.11 0.12 0.13 0.09 0.07 0.09 0.08 0.11 0.23 0.51 0.65 0.33 0.37 0.52 0.48 0.42 0.38 0.41 0.46 0.42 0.26 0.12 0.19 0.32 0.60 0.48 0.20 0.05 0.01 0.08 0.08 0.03 0.00 0.00 0.00 0.02 0.05 0.03 0.03 0.02 0.04 0.04 0.07 0.09 0.07 0.02
0.64 0.59 0.46 0.26 0.11 0.10 0.09 0.10 0.11 0.11 0.11 0.11 0.09 0.14 0.15 0.20 0.16 0.37 0.49 0.32 0.24 0.42 0.80 0.48 0.42 0.53 0.44 0.41 0.39 0.21 0.27 0.32 0.40 0.48 0.28 0.07 0.03 0.07 0.06 0.01 0.00 0.00 0.00 0.02 0.04 0.06 0.06 0.03 0.02 0.01 0.03 0.04 0.07 0.06
0.72 0.55 0.45 0.50 0.16 0.09 0.08 0.10 0.13 0.13 0.12 0.12 0.12 0.19 0.29 0.37 0.29 0.17 0.19 0.26 0.35 0.43 0.47 0.54 0.43 0.57 0.39 0.39 0.44 0.29 0.33 0.35 0.36 0.31 0.22 0.13 0.11 0.12 0.06 0.00 0.00 0.00 0.00 0.00 0.01 0.01 0.02 0.02 0.02 0.03 0.01 0.01 0.01 0.00
0.76 0.51 0.37 0.48 0.30 0.11 0.08 0.10 0.11 0.13 0.15 0.15 0.23 0.43 0.62 0.50 0.30 0.20 0.25 0.30 0.20 0.35 0.49 0.30 0.29 0.55 0.49 0.39 0.36 0.33 0.30 0.34 0.24 0.17 0.09 0.14 0.21 0.16 0.01 0.00 0.00 0.00 0.00 0.00 0.00 0.00 0.01 0.01 0.02 0.02 0.01 0.01 0.00 0.00
0.62 0.42 0.33 0.40 0.40 0.11 0.07 0.08 0.12 0.19 0.19 0.32 0.75 0.97 0.77 0.23 0.16 0.49 0.80 1.00 0.46 0.19 0.14 0.19 0.26 0.39 0.49 0.35 0.31 0.24 0.18 0.20 0.21 0.07 0.05 0.15 0.06 0.01 0.00 0.00 0.00 0.00 0.00 0.00 0.00 0.00 0.01 0.01 0.01 0.00 0.00 0.00 0.00 0.00
0.53 0.38 0.29 0.38 0.39 0.13 0.09 0.10 0.17 0.27 0.40 0.49 0.58 0.42 0.30 0.22 0.39 0.65 0.69 0.65 0.43 0.23 0.04 0.03 0.15 0.22 0.31 0.29 0.21 0.16 0.20 0.16 0.19 0.09 0.13 0.11 0.02 0.00 0.00 0.00 0.00 0.00 0.00 0.00 0.00 0.00 0.00 0.00 0.00 0.00 0.00 0.00 0.00 0.00
0.41 0.40 0.34 0.40 0.31 0.15 0.13 0.14 0.25 0.31 0.20 0.08 0.23 0.32 0.30 0.34 0.34 0.38 0.20 0.18 0.20 0.12 0.08 0.04 0.11 0.19 0.15 0.17 0.21 0.14 0.14 0.11 0.10 0.08 0.16 0.05 0.00 0.00 0.00 0.00 0.00 0.00 0.00 0.00 0.00 0.00 0.00 0.00 0.00 0.00 0.00 0.00 0.00 0.00
0.35 0.35 0.35 0.31 0.21 0.16 0.15 0.21 0.19 0.07 0.07 0.14 0.27 0.38 0.21 0.15 0.14 0.14 0.10 0.04 0.07 0.09 0.10 0.12 0.22 0.18 0.13 0.15 0.22 0.16 0.13 0.08 0.01 0.03 0.04 0.01 0.00 0.00 0.00 0.00 0.00 0.00 0.00 0.00 0.00 0.00 0.00 0.00 0.00 0.00 0.00 0.00 0.00 0.00
0.26 0.28 0.30 0.23 0.16 0.13 0.14 0.13 0.05 0.06 0.15 0.21 0.19 0.20 0.08 0.04 0.01 0.02 0.04 0.08 0.11 0.10 0.08 0.18 0.31 0.16 0.12 0.12 0.09 0.06 0.04 0.01 0.00 0.01 0.01 0.00 0.00 0.00 0.01 0.01 0.00 0.00 0.00 0.00 0.00 0.00 0.00 0.00 0.00 0.00 0.00 0.00 0.00 0.00
0.13 0.15 0.14 0.10 0.06 0.06 0.05 0.04 0.02 0.05 0.15 0.17 0.11 0.09 0.02 0.02 0.02 0.05 0.03 0.01 0.00 0.00 0.03 0.16 0.19 0.10 0.13 0.10 0.03 0.03 0.01 0.01 0.01 0.03 0.04 0.00 0.00 0.00 0.01 0.00 0.00 0.00 0.00 0.00 0.00 0.00 0.00 0.00 0.00 0.00 0.00 0.00 0.00 0.00
0.10 0.14 0.10 0.07 0.06 0.04 0.03 0.04 0.05 0.12 0.13 0.12 0.06 0.05 0.06 0.03 0.02 0.01 0.01 0.01 0.00 0.01 0.03 0.09 0.15 0.06 0.07 0.05 0.03 0.01 0.00 0.01 0.02 0.00 0.00 0.00 0.00 0.00 0.01 0.00 0.00 0.00 0.00 0.00 0.00 0.00 0.00 0.00 0.00 0.00 0.00 0.00 0.00 0.00
0.12 0.17 0.10 0.04 0.02 0.03 0.04 0.04 0.09 0.13 0.07 0.03 0.08 0.08 0.06 0.05 0.04 0.02 0.01 0.01 0.01 0.02 0.04 0.06 0.04 0.04 0.04 0.01 0.01 0.00 0.01 0.01 0.00 0.00 0.00 0.00 0.00 0.00 0.00 0.00 0.00 0.00 0.00 0.00 0.00 0.00 0.00 0.00 0.00 0.00 0.00 0.00 0.00 0.00
0.07 0.12 0.05 0.03 0.03 0.05 0.06 0.07 0.14 0.08 0.03 0.05 0.10 0.12 0.05 0.08 0.05 0.02 0.01 0.00 0.01 0.02 0.04 0.05 0.01 0.00 0.00 0.01 0.02 0.03 0.00 0.00 0.01 0.00 0.01 0.00 0.00 0.00 0.00 0.00 0.00 0.00 0.00 0.00 0.00 0.00 0.00 0.00 0.00 0.00 0.00 0.00 0.00 0.00
0.03 0.03 0.04 0.02 0.01 0.06 0.08 0.07 0.10 0.07 0.06 0.09 0.14 0.09 0.06 0.10 0.03 0.01 0.00 0.00 0.00 0.01 0.03 0.02 0.00 0.00 0.02 0.02 0.01 0.00 0.00 0.00 0.01 0.01 0.01 0.01 0.00 0.00 0.00 0.00 0.00 0.00 0.00 0.00 0.00 0.00 0.00 0.00 0.00 0.00 0.00 0.00 0.00 0.00
0.00 0.01 0.01 0.00 0.03 0.08 0.04 0.05 0.06 0.05 0.04 0.10 0.10 0.06 0.04 0.05 0.02 0.00 0.00 0.00 0.00 0.03 0.05 0.01 0.01 0.02 0.01 0.00 0.00 0.01 0.01 0.00 0.00 0.01 0.02 0.01 0.01 0.00 0.00 0.00 0.00 0.00 0.00 0.00 0.01 0.00 0.00 0.00 0.00 0.00 0.00 0.00 0.00 0.00
0.01 0.00 0.00 0.01 0.06 0.06 0.03 0.02 0.03 0.04 0.04 0.08 0.07 0.03 0.03 0.01 0.03 0.02 0.01 0.00 0.04 0.05 0.03 0.02 0.02 0.01 0.01 0.01 0.00 0.01 0.00 0.00 0.00 0.00 0.00 0.01 0.01 0.00 0.00 0.00 0.00 0.00 0.00 0.00 0.01 0.00 0.00 0.00 0.00 0.00 0.00 0.00 0.00 0.00
0.03 0.00 0.02 0.01 0.04 0.03 0.01 0.00 0.01 0.01 0.02 0.04 0.02 0.01 0.02 0.02 0.02 0.02 0.02 0.03 0.04 0.02 0.01 0.01 0.01 0.01 0.01 0.00 0.01 0.00 0.00 0.00 0.00 0.00 0.00 0.00 0.01 0.01 0.01 0.01 0.00 0.01 0.00 0.00 0.00 0.00 0.00 0.00 0.00 0.00 0.00 0.00 0.00 0.00
0.00 0.00 0.00 0.01 0.00 0.00 0.00 0.00 0.01 0.00 0.01 0.02 0.01 0.01 0.01 0.02 0.01 0.00 0.01 0.01 0.01 0.01 0.01 0.00 0.00 0.00 0.00 0.00 0.00 0.00 0.00 0.00 0.00 0.00 0.00 0.00 0.00 0.00 0.00 0.00 0.00 0.00 0.01 0.00 0.00 0.00 0.00 0.00 0.00 0.00 0.01 0.01 0.00 0.01
0.01 0.01 0.00 0.00 0.00 0.00 0.00 0.00 0.00 0.00 0.00 0.00 0.01 0.01 0.00 0.01 0.00 0.00 0.00 0.00 0.01 0.01 0.00 0.00 0.00 0.00 0.01 0.01 0.00 0.00 0.00 0.00 0.00 0.00 0.00 0.00 0.01 0.02 0.00 0.00 0.00 0.00 0.00 0.00 0.00 0.00 0.00 0.00 0.00 0.01 0.01 0.02 0.02 0.04
0.00 0.00 0.00 0.00 0.00 0.00 0.00 0.00 0.00 0.00 0.00 0.00 0.00 0.00 0.00 0.00 0.00 0.00 0.00 0.00 0.01 0.01 0.00 0.00 0.00 0.00 0.00 0.00 0.00 0.00 0.00 0.00 0.00 0.00 0.00 0.00 0.01 0.02 0.03 0.03 0.02 0.01 0.01 0.01 0.02 0.01 0.02 0.02 0.02 0.02 0.02 0.03 0.03 0.03
0.00 0.00 0.00 0.00 0.00 0.00 0.00 0.00 0.00 0.00 0.00 0.00 0.00 0.00 0.00 0.00 0.00 0.00 0.00 0.00 0.00 0.00 0.00 0.00 0.00 0.00 0.00 0.00 0.00 0.00 0.00 0.00 0.00 0.00 0.01 0.00 0.00 0.00 0.01 0.02 0.04 0.04 0.01 0.00 0.01 0.02 0.03 0.03 0.02 0.03 0.03 0.03 0.03 0.04
0.00 0.00 0.00 0.00 0.00 0.00 0.00 0.00 0.00 0.00 0.00 0.00 0.00 0.00 0.00 0.00 0.00 0.00 0.00 0.00 0.00 0.00 0.00 0.00 0.00 0.00 0.00 0.00 0.00 0.00 0.00 0.00 0.00 0.00 0.00 0.01 0.01 0.00 0.00 0.00 0.00 0.00 0.00 0.01 0.01 0.01 0.02 0.02 0.02 0.03 0.04 0.04 0.04 0.03
0.00 0.00 0.00 0.00 0.00 0.00 0.00 0.00 0.00 0.00 0.00 0.00 0.00 0.00 0.00 0.00 0.00 0.00 0.01 0.00 0.00 0.00 0.00 0.00 0.00 0.00 0.00 0.00 0.00 0.00 0.00 0.01 0.01 0.00 0.00 0.01 0.02 0.02 0.00 0.00 0.00 0.00 0.00 0.00 0.01 0.03 0.04 0.03 0.02 0.03 0.04 0.04 0.05 0.05
0.00 0.00 0.00 0.00 0.00 0.01 0.01 0.01 0.01 0.01 0.01 0.01 0.01 0.00 0.01 0.01 0.02 0.01 0.01 0.01 0.00 0.00 0.00 0.01 0.01 0.01 0.01 0.01 0.01 0.01 0.00 0.01 0.01 0.02 0.01 0.01 0.02 0.02 0.02 0.01 0.00 0.00 0.00 0.00 0.01 0.02 0.03 0.03 0.04 0.04 0.05 0.06 0.07 0.06
0.00 0.00 0.00 0.00 0.00 0.00 0.01 0.02 0.02 0.02 0.01 0.01 0.01 0.01 0.00 0.01 0.03 0.03 0.02 0.01 0.01 0.01 0.01 0.01 0.01 0.01 0.02 0.02 0.02 0.02 0.02 0.01 0.01 0.01 0.01 0.01 0.00 0.00 0.00 0.02 0.02 0.01 0.01 0.01 0.02 0.03 0.03 0.03 0.02 0.03 0.04 0.05 0.05 0.05
0.00 0.00 0.00 0.00 0.01 0.00 0.01 0.01 0.00 0.01 0.02 0.02 0.02 0.04 0.02 0.02 0.03 0.03 0.03 0.03 0.02 0.02 0.02 0.02 0.02 0.01 0.02 0.01 0.01 0.02 0.02 0.01 0.01 0.01 0.00 0.01 0.01 0.00 0.00 0.00 0.01 0.03 0.05 0.05 0.03 0.02 0.01 0.02 0.02 0.02 0.03 0.03 0.03 0.03
0.00 0.00 0.02 0.02 0.01 0.00 0.00 0.01 0.01 0.01 0.01 0.02 0.03 0.04 0.04 0.05 0.03 0.06 0.04 0.04 0.05 0.06 0.06 0.05 0.04 0.03 0.01 0.01 0.01 0.00 0.00 0.00 0.00 0.00 0.00 0.01 0.01 0.02 0.02 0.01 0.01 0.03 0.05 0.06 0.06 0.05 0.04 0.03 0.04 0.04 0.04 0.03 0.03 0.03
0.01 0.01 0.02 0.02 0.01 0.01 0.03 0.02 0.02 0.01 0.01 0.01 0.01 0.02 0.03 0.06 0.06 0.07 0.04 0.05 0.08 0.09 0.09 0.10 0.11 0.08 0.05 0.04 0.04 0.03 0.01 0.01 0.00 0.00 0.00 0.01 0.03 0.04 0.05 0.06 0.05 0.04 0.03 0.04 0.06 0.06 0.06 0.06 0.06 0.05 0.04 0.03 0.03 0.02

GFSWCAN_prec_precacc24_180.txt.gz
Total_Precipitation_Accumulation
0.12 0.13 0.13 0.14 0.13 0.15 0.16 0.15 0.16 0.13 0.11 0.13 0.15 0.16 0.18 0.24 0.31 0.51 0.34 0.32 0.44 0.40 0.14 0.28 0.34 0.34 0.35 0.41 0.30 0.21 0.35 0.36 0.52 0.55 0.48 0.33 0.21 0.04 0.04 0.00 0.04 0.07 0.11 0.15 0.33 0.54 0.30 0.03 0.02 0.03 0.01 0.02 0.02 0.02
0.09 0.11 0.11 0.10 0.12 0.16 0.18 0.16 0.16 0.17 0.13 0.10 0.09 0.13 0.12 0.18 0.27 0.52 0.42 0.25 0.45 0.57 0.22 0.14 0.19 0.20 0.26 0.31 0.51 0.48 0.47 0.34 0.40 0.43 0.30 0.27 0.31 0.25 0.14 0.09 0.03 0.07 0.08 0.07 0.09 0.06 0.01 0.01 0.02 0.04 0.02 0.03 0.02 0.01
0.06 0.07 0.06 0.06 0.07 0.12 0.13 0.16 0.16 0.14 0.15 0.13 0.07 0.06 0.08 0.11 0.20 0.32 0.32 0.44 0.56 0.69 0.28 0.08 0.08 0.11 0.11 0.12 0.31 0.83 0.53 0.46 0.48 0.44 0.45 0.41 0.30 0.15 0.20 0.16 0.09 0.06 0.04 0.14 0.15 0.03 0.01 0.01 0.01 0.06 0.08 0.03 0.02 0.01
0.05 0.05 0.04 0.04 0.05 0.07 0.09 0.10 0.13 0.12 0.09 0.12 0.08 0.05 0.05 0.09 0.17 0.23 0.28 0.42 0.51 0.67 0.43 0.09 0.15 0.24 0.19 0.16 0.13 0.22 0.29 0.49 0.64 0.74 0.85 0.51 0.29 0.14 0.10 0.06 0.08 0.11 0.12 0.15 0.14 0.07 0.05 0.04 0.02 0.06 0.12 0.04 0.02 0.00
0.05 0.05 0.04 0.04 0.04 0.06 0.10 0.10 0.10 0.11 0.08 0.07 0.07 0.06 0.05 0.08 0.21 0.26 0.25 0.28 0.30 0.50 0.50 0.22 0.23 0.26 0.33 0.37 0.17 0.11 0.16 0.39 0.75 0.83 0.61 0.40 0.18 0.11 0.03 0.03 0.03 0.02 0.11 0.18 0.16 0.10 0.08 0.03 0.03 0.05 0.17 0.09 0.02 0.01
0.11 0.11 0.10 0.06 0.05 0.06 0.08 0.09 0.09 0.09 0.11 0.07 0.05 0.08 0.08 0.08 0.18 0.39 0.42 0.16 0.22 0.45 0.54 0.27 0.17 0.36 0.45 0.42 0.27 0.15 0.21 0.36 0.72 0.63 0.33 0.07 0.02 0.14 0.09 0.03 0.00 0.00 0.00 0.02 0.05 0.04 0.10 0.19 0.14 0.09 0.14 0.12 0.08 0.02
0.26 0.30 0.34 0.20 0.08 0.08 0.08 0.08 0.08 0.07 0.07 0.09 0.07 0.12 0.13 0.16 0.11 0.32 0.38 0.25 0.19 0.49 0.95 0.42 0.28 0.50 0.44 0.42 0.40 0.23 0.30 0.34 0.48 0.55 0.30 0.07 0.03 0.11 0.08 0.02 0.00 0.00 0.00 0.02 0.04 0.10 0.11 0.10 0.10 0.04 0.06 0.08 0.08 0.12
0.40 0.33 0.38 0.46 0.15 0.09 0.06 0.06 0.08 0.08 0.08 0.09 0.09 0.15 0.21 0.28 0.20 0.09 0.17 0.27 0.38 0.52 0.73 0.65 0.37 0.57 0.40 0.40 0.46 0.32 0.38 0.44 0.41 0.34 0.23 0.14 0.11 0.14 0.07 0.00 0.00 0.00 0.00 0.00 0.01 0.03 0.03 0.02 0.03 0.03 0.02 0.02 0.02 0.02
0.36 0.25 0.24 0.43 0.29 0.11 0.07 0.06 0.07 0.10 0.12 0.12 0.18 0.30 0.40 0.35 0.20 0.07 0.20 0.29 0.22 0.37 0.52 0.31 0.27 0.55 0.50 0.43 0.41 0.35 0.32 0.35 0.25 0.18 0.09 0.15 0.22 0.17 0.02 0.00 0.00 0.00 0.00 0.00 0.01 0.01 0.01 0.01 0.03 0.04 0.02 0.02 0.01 0.00
0.23 0.17 0.18 0.32 0.38 0.11 0.05 0.05 0.09 0.17 0.16 0.25 0.57 0.67 0.42 0.14 0.12 0.29 0.61 0.90 0.49 0.22 0.16 0.19 0.26 0.39 0.56 0.48 0.39 0.27 0.20 0.20 0.22 0.08 0.06 0.15 0.06 0.01 0.01 0.01 0.00 0.00 0.00 0.00 0.01 0.00 0.01 0.01 0.01 0.01 0.00 0.00 0.00 0.00
0.22 0.16 0.14 0.27 0.32 0.09 0.04 0.06 0.14 0.23 0.37 0.44 0.50 0.37 0.27 0.20 0.30 0.55 0.66 0.67 0.43 0.24 0.05 0.03 0.15 0.22 0.31 0.37 0.34 0.27 0.27 0.19 0.23 0.10 0.16 0.15 0.02 0.00 0.00 0.00 0.01 0.01 0.00 0.00 0.01 0.01 0.01 0.01 0.00 0.00 0.00 0.00 0.00 0.00
0.14 0.16 0.15 0.25 0.21 0.06 0.04 0.08 0.21 0.28 0.18 0.08 0.24 0.34 0.25 0.31 0.39 0.41 0.22 0.20 0.21 0.13 0.10 0.08 0.15 0.22 0.16 0.18 0.27 0.34 0.33 0.22 0.16 0.11 0.28 0.12 0.02 0.02 0.02 0.02 0.02 0.01 0.00 0.00 0.00 0.01 0.00 0.01 0.01 0.00 0.00 0.00 0.00 0.00
0.11 0.14 0.19 0.19 0.13 0.07 0.09 0.18 0.19 0.07 0.07 0.15 0.28 0.39 0.25 0.27 0.22 0.19 0.12 0.08 0.18 0.20 0.22 0.41 0.56 0.48 0.33 0.28 0.34 0.18 0.19 0.11 0.09 0.12 0.11 0.06 0.04 0.01 0.03 0.04 0.02 0.01 0.00 0.00 0.00 0.00 0.02 0.04 0.05 0.01 0.00 0.00 0.00 0.00
0.13 0.16 0.20 0.14 0.10 0.09 0.12 0.12 0.05 0.06 0.16 0.24 0.20 0.22 0.15 0.10 0.02 0.03 0.08 0.20 0.33 0.27 0.18 0.35 0.64 0.47 0.30 0.35 0.27 0.13 0.10 0.07 0.08 0.04 0.10 0.06 0.01 0.00 0.05 0.04 0.05 0.10 0.01 0.01 0.01 0.00 0.01 0.02 0.02 0.00 0.00 0.00 0.00 0.00
0.13 0.16 0.18 0.13 0.07 0.06 0.05 0.04 0.03 0.06 0.17 0.20 0.21 0.14 0.03 0.04 0.05 0.11 0.10 0.08 0.06 0.04 0.06 0.25 0.40 0.33 0.36 0.29 0.13 0.13 0.14 0.06 0.04 0.17 0.18 0.01 0.00 0.00 0.01 0.01 0.01 0.10 0.04 0.00 0.00 0.00 0.00 0.00 0.00 0.00 0.00 0.00 0.00 0.00
0.13 0.24 0.16 0.10 0.06 0.04 0.06 0.05 0.05 0.13 0.14 0.14 0.08 0.03 0.05 0.05 0.05 0.04 0.02 0.01 0.00 0.01 0.05 0.14 0.38 0.24 0.24 0.13 0.14 0.08 0.07 0.06 0.16 0.07 0.00 0.00 0.00 0.00 0.02 0.08 0.04 0.06 0.01 0.00 0.00 0.00 0.00 0.00 0.00 0.00 0.00 0.00 0.00 0.00
0.20 0.25 0.12 0.05 0.02 0.04 0.05 0.05 0.10 0.13 0.07 0.03 0.05 0.04 0.02 0.01 0.01 0.01 0.01 0.01 0.01 0.02 0.06 0.10 0.19 0.12 0.15 0.02 0.01 0.01 0.04 0.06 0.00 0.00 0.00 0.00 0.00 0.00 0.00 0.03 0.02 0.00 0.00 0.00 0.00 0.00 0.00 0.00 0.00 0.00 0.00 0.00 0.00 0.00
0.07 0.12 0.05 0.04 0.04 0.06 0.08 0.09 0.15 0.08 0.03 0.03 0.05 0.04 0.03 0.02 0.02 0.01 0.01 0.01 0.01 0.03 0.07 0.13 0.14 0.05 0.01 0.01 0.04 0.09 0.01 0.00 0.01 0.00 0.01 0.00 0.00 0.00 0.00 0.00 0.00 0.00 0.00 0.00 0.00 0.00 0.00 0.00 0.00 0.00 0.00 0.00 0.00 0.00
0.03 0.03 0.04 0.02 0.01 0.07 0.08 0.07 0.13 0.13 0.04 0.06 0.07 0.05 0.04 0.05 0.02 0.00 0.00 0.00 0.00 0.02 0.05 0.04 0.02 0.01 0.02 0.03 0.02 0.00 0.00 0.00 0.01 0.01 0.01 0.01 0.00 0.00 0.00 0.00 0.00 0.00 0.00 0.00 0.00 0.00 0.00 0.00 0.00 0.00 0.00 0.00 0.00 0.00
0.00 0.01 0.01 0.00 0.04 0.16 0.15 0.09 0.08 0.06 0.03 0.09 0.07 0.04 0.03 0.05 0.02 0.01 0.00 0.00 0.01 0.06 0.10 0.03 0.01 0.02 0.02 0.01 0.01 0.01 0.01 0.00 0.00 0.01 0.02 0.01 0.01 0.01 0.00 0.00 0.00 0.00 0.00 0.00 0.00 0.00 0.00 0.00 0.00 0.00 0.00 0.00 0.00 0.00
0.02 0.01 0.00 0.01 0.09 0.15 0.16 0.05 0.04 0.03 0.03 0.06 0.05 0.02 0.02 0.01 0.03 0.02 0.01 0.00 0.06 0.07 0.04 0.02 0.01 0.01 0.00 0.01 0.00 0.01 0.00 0.00 0.00 0.01 0.00 0.01 0.01 0.01 0.01 0.01 0.00 0.00 0.00 0.00 0.00 0.00 0.00 0.00 0.00 0.00 0.00 0.00 0.00 0.00
0.08 0.00 0.04 0.05 0.08 0.12 0.07 0.02 0.02 0.02 0.02 0.03 0.01 0.01 0.02 0.02 0.02 0.03 0.02 0.03 0.04 0.01 0.01 0.01 0.02 0.01 0.02 0.01 0.01 0.00 0.00 0.00 0.00 0.00 0.00 0.00 0.01 0.02 0.01 0.00 0.00 0.00 0.00 0.00 0.00 0.00 0.00 0.00 0.00 0.00 0.00 0.00 0.00 0.00
0.00 0.00 0.04 0.18 0.18 0.05 0.01 0.00 0.02 0.01 0.03 0.03 0.02 0.01 0.02 0.02 0.02 0.00 0.01 0.01 0.01 0.01 0.03 0.03 0.04 0.03 0.01 0.00 0.00 0.00 0.00 0.00 0.00 0.00 0.00 0.00 0.00 0.00 0.00 0.00 0.00 0.00 0.00 0.00 0.00 0.00 0.00 0.00 0.00 0.00 0.01 0.01 0.00 0.01
0.04 0.10 0.07 0.03 0.02 0.01 0.00 0.00 0.00 0.01 0.01 0.01 0.01 0.01 0.01 0.02 0.01 0.00 0.01 0.00 0.01 0.02 0.01 0.00 0.00 0.00 0.01 0.01 0.00 0.00 0.00 0.00 0.00 0.00 0.00 0.00 0.02 0.02 0.01 0.00 0.00 0.00 0.00 0.00 0.00 0.00 0.00 0.00 0.00 0.01 0.01 0.03 0.03 0.03
0.00 0.01 0.03 0.02 0.00 0.00 0.00 0.00 0.00 0.00 0.00 0.01 0.02 0.00 0.01 0.00 0.00 0.00 0.00 0.00 0.01 0.01 0.00 0.00 0.00 0.00 0.00 0.01 0.00 0.00 0.00 0.00 0.00 0.00 0.00 0.00 0.01 0.03 0.05 0.04 0.03 0.01 0.01 0.01 0.02 0.02 0.02 0.02 0.02 0.01 0.02 0.03 0.04 0.04
0.00 0.00 0.00 0.00 0.01 0.00 0.00 0.00 0.01 0.02 0.01 0.01 0.01 0.00 0.00 0.00 0.01 0.00 0.00 0.00 0.00 0.00 0.00 0.00 0.00 0.00 0.01 0.00 0.01 0.00 0.00 0.00 0.01 0.00 0.00 0.00 0.01 0.01 0.02 0.02 0.03 0.04 0.02 0.02 0.03 0.02 0.02 0.03 0.03 0.03 0.03 0.03 0.03 0.04
0.00 0.00 0.00 0.00 0.00 0.00 0.00 0.00 0.00 0.00 0.00 0.00 0.01 0.01 0.01 0.01 0.01 0.01 0.01 0.00 0.00 0.00 0.00 0.00 0.00 0.01 0.01 0.01 0.01 0.00 0.00 0.00 0.01 0.01 0.00 0.01 0.01 0.01 0.01 0.01 0.02 0.02 0.03 0.03 0.02 0.01 0.02 0.02 0.03 0.03 0.03 0.04 0.04 0.03
0.00 0.00 0.00 0.00 0.00 0.00 0.00 0.00 0.00 0.00 0.01 0.01 0.00 0.00 0.01 0.01 0.01 0.01 0.01 0.00 0.00 0.00 0.00 0.00 0.00 0.01 0.00 0.01 0.01 0.01 0.02 0.02 0.03 0.03 0.05 0.06 0.05 0.04 0.02 0.02 0.03 0.03 0.01 0.01 0.01 0.03 0.04 0.03 0.02 0.03 0.04 0.04 0.05 0.05
0.00 0.00 0.00 0.00 0.00 0.01 0.01 0.01 0.01 0.01 0.01 0.01 0.03 0.01 0.01 0.01 0.02 0.01 0.01 0.01 0.00 0.00 0.00 0.01 0.01 0.02 0.03 0.04 0.04 0.05 0.06 0.08 0.06 0.05 0.03 0.03 0.04 0.04 0.06 0.06 0.05 0.04 0.02 0.01 0.01 0.02 0.03 0.03 0.04 0.04 0.05 0.06 0.07 0.06
0.00 0.00 0.00 0.00 0.00 0.00 0.01 0.02 0.02 0.03 0.02 0.02 0.02 0.01 0.00 0.01 0.02 0.03 0.02 0.01 0.01 0.01 0.01 0.01 0.02 0.02 0.03 0.05 0.06 0.05 0.05 0.07 0.07 0.06 0.03 0.02 0.01 0.01 0.03 0.04 0.05 0.05 0.04 0.02 0.02 0.04 0.05 0.03 0.03 0.04 0.05 0.07 0.07 0.07
0.00 0.00 0.00 0.00 0.00 0.00 0.01 0.01 0.00 0.01 0.02 0.02 0.02 0.04 0.02 0.02 0.02 0.03 0.03 0.03 0.02 0.03 0.03 0.02 0.02 0.03 0.05 0.05 0.06 0.07 0.05 0.04 0.05 0.05 0.04 0.03 0.01 0.00 0.00 0.01 0.02 0.03 0.05 0.05 0.04 0.02 0.02 0.03 0.03 0.03 0.04 0.04 0.04 0.05
0.00 0.00 0.01 0.01 0.00 0.00 0.00 0.01 0.01 0.01 0.01 0.02 0.03 0.04 0.04 0.05 0.04 0.07 0.05 0.04 0.06 0.07 0.07 0.06 0.05 0.04 0.03 0.03 0.04 0.06 0.07 0.05 0.04 0.05 0.05 0.05 0.04 0.03 0.03 0.02 0.02 0.03 0.05 0.06 0.06 0.06 0.04 0.04 0.04 0.04 0.05 0.04 0.04 0.03
0.00 0.01 0.01 0.01 0.01 0.01 0.03 0.02 0.01 0.01 0.01 0.01 0.01 0.02 0.03 0.06 0.07 0.08 0.04 0.05 0.08 0.10 0.09 0.09 0.09 0.08 0.06 0.05 0.06 0.06 0.06 0.06 0.06 0.07 0.10 0.11 0.11 0.12 0.12 0.11 0.09 0.07 0.05 0.05 0.06 0.06 0.07 0.06 0.06 0.06 0.05 0.04 0.03 0.03

GFSWCAN_prec_precacc24_186.txt.gz
Total_Precipitation_Accumulation
0.10 0.12 0.12 0.12 0.11 0.14 0.15 0.13 0.13 0.11 0.09 0.09 0.08 0.11 0.16 0.23 0.28 0.31 0.21 0.25 0.39 0.34 0.10 0.08 0.11 0.15 0.20 0.32 0.27 0.19 0.26 0.24 0.31 0.34 0.34 0.22 0.16 0.03 0.04 0.00 0.03 0.07 0.11 0.15 0.33 0.55 0.37 0.06 0.03 0.07 0.04 0.03 0.03 0.03
0.08 0.09 0.08 0.07 0.10 0.14 0.16 0.15 0.14 0.14 0.12 0.10 0.08 0.10 0.11 0.18 0.25 0.39 0.32 0.20 0.39 0.58 0.20 0.09 0.06 0.02 0.03 0.11 0.33 0.37 0.44 0.32 0.38 0.39 0.29 0.29 0.32 0.24 0.14 0.10 0.03 0.07 0.09 0.07 0.09 0.06 0.01 0.02 0.04 0.06 0.04 0.03 0.02 0.01
0.06 0.06 0.05 0.05 0.06 0.11 0.12 0.15 0.15 0.12 0.12 0.12 0.08 0.08 0.11 0.16 0.26 0.37 0.34 0.53 0.77 0.91 0.30 0.03 0.01 0.00 0.00 0.02 0.14 0.50 0.42 0.44 0.48 0.43 0.44 0.40 0.30 0.15 0.20 0.17 0.11 0.07 0.05 0.16 0.17 0.04 0.01 0.01 0.01 0.06 0.08 0.03 0.02 0.01
0.05 0.04 0.04 0.04 0.05 0.06 0.08 0.08 0.09 0.09 0.07 0.09 0.06 0.07 0.11 0.16 0.26 0.26 0.19 0.30 0.49 0.73 0.44 0.04 0.01 0.01 0.02 0.01 0.03 0.07 0.18 0.38 0.62 0.78 1.00 0.62 0.33 0.17 0.14 0.09 0.10 0.11 0.13 0.15 0.14 0.07 0.05 0.04 0.02 0.06 0.12 0.04 0.02 0.00
0.05 0.04 0.03 0.03 0.03 0.05 0.07 0.07 0.05 0.05 0.04 0.04 0.05 0.07 0.08 0.11 0.25 0.24 0.18 0.15 0.16 0.45 0.47 0.13 0.02 0.01 0.02 0.02 0.03 0.03 0.06 0.15 0.63 1.00 0.84 0.53 0.24 0.19 0.13 0.09 0.06 0.02 0.11 0.18 0.17 0.10 0.08 0.03 0.03 0.05 0.17 0.09 0.02 0.01
0.05 0.04 0.04 0.03 0.02 0.03 0.04 0.04 0.03 0.04 0.06 0.06 0.07 0.08 0.06 0.07 0.14 0.23 0.16 0.10 0.12 0.28 0.45 0.12 0.00 0.00 0.00 0.00 0.02 0.03 0.05 0.21 0.68 0.84 0.59 0.30 0.16 0.42 0.43 0.10 0.00 0.00 0.00 0.02 0.05 0.04 0.10 0.19 0.14 0.09 0.14 0.12 0.08 0.02
0.04 0.04 0.04 0.04 0.03 0.02 0.02 0.02 0.02 0.03 0.05 0.07 0.07 0.11 0.12 0.14 0.07 0.18 0.22 0.24 0.21 0.47 0.97 0.36 0.05 0.02 0.05 0.06 0.06 0.08 0.15 0.26 0.47 0.57 0.36 0.08 0.05 0.30 0.25 0.05 0.00 0.00 0.00 0.02 0.04 0.10 0.11 0.10 0.10 0.04 0.06 0.09 0.09 0.14
0.06 0.05 0.03 0.04 0.05 0.03 0.02 0.02 0.04 0.04 0.04 0.04 0.05 0.12 0.18 0.20 0.13 0.05 0.08 0.22 0.38 0.43 0.60 0.45 0.11 0.10 0.06 0.11 0.21 0.24 0.33 0.42 0.42 0.35 0.23 0.14 0.12 0.18 0.12 0.00 0.00 0.00 0.00 0.00 0.01 0.03 0.03 0.02 0.03 0.04 0.03 0.03 0.02 0.03
0.10 0.10 0.05 0.04 0.04 0.04 0.04 0.03 0.04 0.05 0.05 0.05 0.09 0.23 0.25 0.21 0.12 0.05 0.06 0.17 0.21 0.28 0.42 0.16 0.09 0.28 0.35 0.36 0.37 0.32 0.32 0.35 0.26 0.19 0.10 0.15 0.23 0.20 0.02 0.00 0.00 0.00 0.00 0.00 0.01 0.01 0.01 0.01 0.03 0.04 0.04 0.03 0.02 0.00
0.19 0.14 0.12 0.11 0.09 0.05 0.04 0.05 0.05 0.08 0.12 0.18 0.44 0.51 0.24 0.07 0.07 0.14 0.30 0.64 0.43 0.25 0.17 0.13 0.14 0.31 0.53 0.47 0.38 0.27 0.20 0.21 0.23 0.08 0.06 0.16 0.07 0.01 0.01 0.01 0.00 0.00 0.00 0.00 0.02 0.00 0.01 0.01 0.01 0.01 0.01 0.01 0.00 0.00
0.23 0.17 0.12 0.17 0.18 0.08 0.05 0.05 0.06 0.18 0.29 0.38 0.42 0.21 0.21 0.15 0.22 0.26 0.38 0.51 0.38 0.27 0.07 0.02 0.10 0.21 0.31 0.38 0.35 0.29 0.28 0.20 0.26 0.10 0.16 0.15 0.02 0.01 0.02 0.02 0.03 0.08 0.12 0.11 0.08 0.04 0.02 0.02 0.00 0.00 0.00 0.00 0.00 0.00
0.16 0.17 0.13 0.23 0.19 0.08 0.04 0.05 0.15 0.24 0.16 0.07 0.15 0.24 0.21 0.20 0.31 0.29 0.16 0.21 0.29 0.16 0.11 0.11 0.21 0.31 0.21 0.26 0.41 0.41 0.36 0.24 0.17 0.13 0.37 0.15 0.04 0.06 0.04 0.03 0.04 0.04 0.06 0.10 0.07 0.04 0.01 0.01 0.01 0.00 0.00 0.01 0.00 0.02
0.11 0.14 0.19 0.19 0.13 0.08 0.05 0.13 0.15 0.06 0.04 0.10 0.26 0.37 0.19 0.22 0.26 0.24 0.14 0.11 0.27 0.28 0.27 0.53 0.77 0.72 0.56 0.56 0.60 0.27 0.27 0.15 0.11 0.20 0.17 0.14 0.06 0.02 0.03 0.04 0.03 0.06 0.11 0.06 0.02 0.00 0.02 0.04 0.05 0.03 0.01 0.00 0.01 0.06
0.09 0.13 0.18 0.12 0.10 0.07 0.09 0.10 0.04 0.04 0.15 0.23 0.20 0.21 0.14 0.12 0.04 0.03 0.10 0.27 0.42 0.36 0.21 0.45 0.95 0.75 0.44 0.60 0.39 0.22 0.11 0.09 0.14 0.09 0.20 0.08 0.01 0.00 0.05 0.04 0.06 0.16 0.09 0.02 0.01 0.00 0.01 0.02 0.06 0.07 0.03 0.03 0.07 0.05
0.10 0.13 0.16 0.12 0.11 0.06 0.05 0.04 0.02 0.06 0.16 0.19 0.22 0.15 0.03 0.04 0.05 0.11 0.10 0.08 0.07 0.04 0.13 0.57 0.67 0.53 0.53 0.43 0.20 0.19 0.23 0.16 0.10 0.27 0.27 0.01 0.00 0.00 0.01 0.01 0.02 0.15 0.20 0.03 0.00 0.00 0.01 0.00 0.02 0.06 0.04 0.05 0.04 0.01
0.13 0.26 0.16 0.09 0.11 0.06 0.09 0.05 0.05 0.13 0.14 0.14 0.08 0.03 0.04 0.04 0.05 0.04 0.02 0.01 0.00 0.01 0.09 0.23 0.49 0.36 0.46 0.24 0.26 0.19 0.14 0.11 0.29 0.20 0.02 0.00 0.00 0.00 0.02 0.09 0.05 0.15 0.16 0.23 0.19 0.13 0.11 0.02 0.00 0.01 0.01 0.00 0.00 0.00
0.25 0.24 0.11 0.04 0.05 0.06 0.05 0.05 0.10 0.13 0.07 0.03 0.02 0.02 0.02 0.01 0.01 0.01 0.01 0.01 0.01 0.05 0.09 0.11 0.24 0.24 0.31 0.16 0.06 0.02 0.09 0.21 0.12 0.02 0.00 0.00 0.00 0.00 0.00 0.03 0.03 0.09 0.01 0.00 0.00 0.01 0.05 0.01 0.00 0.00 0.00 0.00 0.00 0.00
0.05 0.09 0.04 0.04 0.04 0.06 0.08 0.09 0.15 0.08 0.02 0.00 0.01 0.02 0.02 0.01 0.01 0.01 0.01 0.01 0.01 0.06 0.11 0.15 0.16 0.07 0.02 0.02 0.06 0.17 0.11 0.03 0.01 0.01 0.01 0.01 0.00 0.00 0.00 0.00 0.00 0.05 0.04 0.00 0.00 0.00 0.00 0.00 0.00 0.00 0.00 0.00 0.00 0.00
0.03 0.04 0.04 0.02 0.01 0.07 0.08 0.07 0.13 0.13 0.02 0.02 0.02 0.02 0.01 0.01 0.00 0.00 0.00 0.00 0.00 0.03 0.10 0.07 0.04 0.03 0.03 0.05 0.08 0.04 0.01 0.01 0.02 0.01 0.01 0.01 0.00 0.00 0.00 0.00 0.00 0.01 0.04 0.01 0.00 0.00 0.00 0.00 0.00 0.00 0.00 0.00 0.00 0.00
0.00 0.01 0.01 0.00 0.04 0.16 0.16 0.09 0.08 0.06 0.02 0.03 0.02 0.01 0.01 0.02 0.01 0.01 0.00 0.00 0.01 0.11 0.15 0.06 0.01 0.02 0.05 0.04 0.03 0.03 0.02 0.04 0.04 0.02 0.02 0.01 0.01 0.01 0.00 0.00 0.00 0.01 0.02 0.01 0.00 0.00 0.00 0.00 0.00 0.00 0.00 0.00 0.00 0.00
0.02 0.01 0.00 0.01 0.09 0.15 0.17 0.13 0.08 0.04 0.02 0.01 0.01 0.01 0.01 0.01 0.03 0.02 0.01 0.00 0.07 0.09 0.05 0.02 0.04 0.03 0.02 0.02 0.01 0.03 0.02 0.03 0.02 0.03 0.02 0.02 0.01 0.01 0.01 0.01 0.01 0.01 0.01 0.01 0.01 0.00 0.00 0.00 0.00 0.00 0.00 0.00 0.00 0.00
0.08 0.00 0.04 0.05 0.08 0.12 0.08 0.02 0.03 0.02 0.03 0.01 0.01 0.01 0.02 0.02 0.02 0.03 0.02 0.03 0.04 0.02 0.04 0.07 0.07 0.03 0.02 0.01 0.01 0.01 0.01 0.00 0.00 0.01 0.01 0.01 0.02 0.02 0.01 0.01 0.02 0.01 0.00 0.01 0.01 0.00 0.00 0.00 0.00 0.00 0.00 0.00 0.00 0.00
0.00 0.00 0.05 0.19 0.19 0.07 0.01 0.01 0.05 0.03 0.06 0.04 0.03 0.03 0.02 0.02 0.03 0.00 0.01 0.01 0.02 0.02 0.06 0.07 0.06 0.03 0.01 0.00 0.00 0.00 0.00 0.00 0.00 0.00 0.00 0.00 0.00 0.00 0.01 0.01 0.02 0.02 0.01 0.01 0.01 0.00 0.00 0.00 0.00 0.00 0.00 0.00 0.00 0.01
0.07 0.14 0.10 0.11 0.11 0.02 0.01 0.02 0.01 0.02 0.04 0.02 0.04 0.02 0.01 0.02 0.01 0.02 0.01 0.00 0.02 0.01 0.01 0.00 0.00 0.00 0.01 0.01 0.00 0.00 0.00 0.00 0.00 0.00 0.00 0.01 0.02 0.02 0.01 0.01 0.01 0.01 0.01 0.02 0.01 0.00 0.00 0.00 0.00 0.00 0.01 0.02 0.03 0.03
0.07 0.05 0.06 0.04 0.02 0.02 0.01 0.00 0.01 0.01 0.01 0.01 0.03 0.01 0.01 0.00 0.02 0.01 0.00 0.01 0.01 0.01 0.00 0.00 0.00 0.00 0.00 0.01 0.00 0.00 0.00 0.00 0.01 0.01 0.00 0.00 0.02 0.04 0.06 0.05 0.04 0.02 0.03 0.04 0.03 0.02 0.01 0.01 0.00 0.01 0.01 0.02 0.04 0.04
0.01 0.00 0.00 0.00 0.01 0.01 0.01 0.00 0.02 0.02 0.03 0.03 0.01 0.00 0.01 0.01 0.01 0.00 0.00 0.00 0.00 0.00 0.00 0.00 0.00 0.00 0.01 0.00 0.01 0.00 0.00 0.00 0.03 0.02 0.00 0.00 0.02 0.04 0.05 0.04 0.04 0.04 0.03 0.05 0.08 0.09 0.08 0.05 0.04 0.04 0.03 0.03 0.03 0.04
0.00 0.00 0.00 0.00 0.00 0.00 0.00 0.00 0.00 0.00 0.01 0.00 0.01 0.01 0.02 0.02 0.01 0.01 0.02 0.03 0.03 0.01 0.00 0.00 0.00 0.01 0.02 0.02 0.01 0.00 0.00 0.00 0.02 0.02 0.01 0.01 0.02 0.03 0.07 0.08 0.05 0.03 0.07 0.14 0.17 0.16 0.15 0.14 0.11 0.09 0.07 0.07 0.05 0.03
0.00 0.00 0.00 0.00 0.00 0.00 0.00 0.00 0.00 0.00 0.01 0.01 0.01 0.01 0.02 0.02 0.02 0.03 0.05 0.05 0.01 0.00 0.00 0.00 0.00 0.01 0.01 0.01 0.01 0.01 0.02 0.02 0.03 0.04 0.06 0.06 0.05 0.04 0.03 0.05 0.07 0.12 0.14 0.14 0.13 0.12 0.12 0.11 0.10 0.10 0.09 0.09 0.08 0.06
0.00 0.00 0.00 0.00 0.00 0.00 0.01 0.01 0.01 0.01 0.01 0.02 0.08 0.05 0.02 0.01 0.01 0.01 0.01 0.01 0.00 0.00 0.00 0.01 0.01 0.01 0.03 0.03 0.04 0.05 0.06 0.09 0.10 0.08 0.05 0.03 0.03 0.04 0.07 0.11 0.15 0.18 0.16 0.15 0.15 0.14 0.11 0.11 0.11 0.10 0.10 0.11 0.10 0.07
0.00 0.00 0.00 0.00 0.00 0.00 0.00 0.01 0.02 0.02 0.01 0.03 0.05 0.04 0.01 0.00 0.01 0.02 0.02 0.01 0.01 0.02 0.02 0.02 0.02 0.02 0.03 0.05 0.06 0.05 0.05 0.07 0.09 0.11 0.10 0.05 0.02 0.04 0.07 0.09 0.11 0.15 0.18 0.20 0.19 0.21 0.22 0.18 0.16 0.16 0.13 0.12 0.10 0.08
0.00 0.00 0.00 0.00 0.00 0.00 0.00 0.01 0.00 0.01 0.01 0.02 0.02 0.04 0.02 0.01 0.02 0.02 0.02 0.02 0.02 0.03 0.03 0.02 0.02 0.03 0.05 0.05 0.06 0.07 0.05 0.04 0.05 0.05 0.06 0.07 0.06 0.05 0.04 0.04 0.05 0.07 0.13 0.16 0.16 0.16 0.14 0.13 0.11 0.10 0.10 0.08 0.06 0.05
0.00 0.00 0.00 0.00 0.00 0.00 0.00 0.01 0.01 0.01 0.01 0.01 0.02 0.03 0.04 0.05 0.04 0.07 0.05 0.04 0.05 0.07 0.07 0.06 0.05 0.04 0.03 0.03 0.05 0.07 0.09 0.06 0.05 0.06 0.07 0.09 0.09 0.07 0.08 0.08 0.08 0.09 0.11 0.13 0.14 0.15 0.13 0.11 0.12 0.12 0.11 0.09 0.07 0.05
0.00 0.00 0.01 0.01 0.00 0.01 0.03 0.02 0.01 0.01 0.01 0.01 0.01 0.01 0.03 0.06 0.07 0.09 0.05 0.04 0.07 0.09 0.09 0.08 0.09 0.07 0.05 0.05 0.06 0.07 0.07 0.07 0.07 0.09 0.14 0.16 0.17 0.17 0.19 0.18 0.17 0.15 0.16 0.17 0.16 0.16 0.19 0.17 0.16 0.15 0.12 0.09 0.07 0.05

GFSWCAN_prec_precacc24_192.txt.gz
Total_Precipitation_Accumulation
0.06 0.08 0.08 0.09 0.07 0.07 0.08 0.08 0.09 0.10 0.11 0.10 0.09 0.08 0.12 0.18 0.21 0.23 0.13 0.18 0.31 0.26 0.08 0.06 0.08 0.09 0.14 0.23 0.16 0.10 0.13 0.16 0.27 0.25 0.21 0.12 0.11 0.03 0.03 0.00 0.03 0.06 0.09 0.10 0.23 0.44 0.34 0.06 0.03 0.07 0.04 0.04 0.03 0.04
0.05 0.05 0.06 0.05 0.04 0.04 0.06 0.07 0.08 0.10 0.11 0.10 0.07 0.07 0.08 0.12 0.24 0.37 0.30 0.15 0.32 0.54 0.19 0.07 0.05 0.02 0.02 0.08 0.27 0.26 0.18 0.16 0.28 0.34 0.26 0.26 0.22 0.14 0.11 0.09 0.03 0.07 0.08 0.06 0.08 0.05 0.01 0.02 0.04 0.06 0.04 0.03 0.02 0.01
0.05 0.06 0.05 0.05 0.04 0.04 0.05 0.07 0.07 0.07 0.08 0.09 0.08 0.08 0.10 0.13 0.25 0.37 0.34 0.49 0.75 1.02 0.40 0.05 0.00 0.00 0.00 0.01 0.13 0.44 0.36 0.32 0.24 0.23 0.36 0.35 0.28 0.13 0.16 0.14 0.09 0.06 0.05 0.16 0.16 0.03 0.00 0.00 0.01 0.06 0.08 0.03 0.02 0.01
0.04 0.03 0.04 0.03 0.03 0.03 0.04 0.05 0.06 0.06 0.05 0.07 0.05 0.07 0.12 0.18 0.27 0.26 0.22 0.37 0.66 0.90 0.47 0.04 0.01 0.01 0.02 0.01 0.03 0.07 0.18 0.37 0.54 0.57 0.78 0.55 0.32 0.17 0.14 0.08 0.09 0.10 0.13 0.15 0.14 0.07 0.05 0.03 0.01 0.06 0.12 0.04 0.02 0.00
0.03 0.04 0.03 0.02 0.02 0.02 0.04 0.04 0.03 0.04 0.04 0.03 0.05 0.07 0.08 0.10 0.20 0.22 0.23 0.25 0.31 0.46 0.35 0.08 0.02 0.01 0.02 0.02 0.03 0.02 0.05 0.13 0.45 0.90 0.82 0.50 0.24 0.21 0.15 0.11 0.06 0.02 0.11 0.19 0.17 0.10 0.08 0.03 0.03 0.05 0.17 0.09 0.02 0.01
0.03 0.04 0.04 0.03 0.01 0.02 0.03 0.03 0.03 0.03 0.05 0.05 0.06 0.06 0.06 0.07 0.11 0.19 0.15 0.10 0.12 0.24 0.44 0.10 0.00 0.00 0.01 0.00 0.01 0.02 0.03 0.10 0.42 0.65 0.51 0.29 0.17 0.52 0.54 0.11 0.00 0.00 0.00 0.01 0.02 0.04 0.10 0.19 0.14 0.09 0.14 0.12 0.08 0.02
0.02 0.03 0.03 0.04 0.03 0.02 0.01 0.02 0.02 0.02 0.05 0.07 0.07 0.07 0.11 0.09 0.04 0.18 0.20 0.13 0.14 0.36 0.68 0.26 0.03 0.01 0.05 0.05 0.04 0.05 0.06 0.10 0.22 0.28 0.18 0.05 0.06 0.39 0.34 0.07 0.00 0.00 0.00 0.00 0.02 0.10 0.11 0.10 0.10 0.04 0.06 0.09 0.09 0.14
0.04 0.04 0.03 0.04 0.04 0.02 0.01 0.03 0.04 0.04 0.04 0.04 0.05 0.06 0.13 0.10 0.06 0.03 0.04 0.05 0.14 0.28 0.40 0.25 0.09 0.09 0.02 0.04 0.08 0.08 0.10 0.19 0.18 0.14 0.06 0.03 0.05 0.17 0.15 0.00 0.00 0.00 0.00 0.00 0.01 0.03 0.03 0.02 0.03 0.04 0.03 0.03 0.02 0.03
0.04 0.06 0.04 0.03 0.04 0.04 0.04 0.05 0.05 0.06 0.06 0.04 0.04 0.06 0.08 0.10 0.07 0.04 0.04 0.04 0.08 0.16 0.25 0.13 0.08 0.18 0.11 0.07 0.08 0.05 0.09 0.14 0.12 0.13 0.04 0.07 0.08 0.13 0.02 0.00 0.00 0.00 0.00 0.01 0.02 0.01 0.01 0.01 0.03 0.04 0.04 0.03 0.02 0.00
0.04 0.06 0.05 0.03 0.04 0.04 0.06 0.05 0.06 0.10 0.08 0.04 0.03 0.08 0.09 0.04 0.05 0.12 0.11 0.16 0.23 0.21 0.13 0.06 0.05 0.15 0.22 0.17 0.14 0.12 0.11 0.13 0.17 0.07 0.03 0.12 0.03 0.00 0.01 0.01 0.04 0.07 0.07 0.04 0.06 0.01 0.01 0.02 0.02 0.03 0.03 0.02 0.02 0.01
0.05 0.06 0.05 0.04 0.04 0.06 0.06 0.06 0.07 0.11 0.05 0.03 0.04 0.09 0.19 0.13 0.16 0.19 0.19 0.16 0.12 0.17 0.08 0.02 0.00 0.04 0.11 0.25 0.31 0.26 0.27 0.20 0.27 0.09 0.15 0.16 0.03 0.02 0.08 0.13 0.16 0.19 0.16 0.11 0.09 0.05 0.04 0.04 0.02 0.01 0.02 0.02 0.03 0.02
0.08 0.06 0.06 0.05 0.07 0.06 0.05 0.04 0.03 0.01 0.00 0.01 0.09 0.18 0.16 0.17 0.25 0.20 0.15 0.17 0.26 0.15 0.11 0.11 0.16 0.22 0.18 0.28 0.54 0.53 0.45 0.32 0.20 0.16 0.45 0.18 0.10 0.16 0.12 0.09 0.07 0.07 0.06 0.13 0.18 0.20 0.08 0.06 0.03 0.01 0.01 0.01 0.00 0.02
0.09 0.09 0.08 0.06 0.08 0.07 0.03 0.04 0.01 0.00 0.01 0.06 0.19 0.33 0.17 0.20 0.23 0.23 0.13 0.11 0.29 0.31 0.29 0.59 0.89 0.93 0.72 0.70 0.74 0.34 0.34 0.17 0.14 0.25 0.25 0.32 0.18 0.06 0.07 0.08 0.04 0.06 0.14 0.24 0.21 0.13 0.12 0.07 0.06 0.03 0.02 0.00 0.01 0.06
0.08 0.09 0.10 0.07 0.09 0.06 0.03 0.04 0.01 0.01 0.09 0.17 0.14 0.20 0.11 0.11 0.04 0.03 0.10 0.27 0.42 0.36 0.21 0.54 1.28 1.10 0.63 0.79 0.48 0.30 0.13 0.15 0.23 0.23 0.44 0.23 0.04 0.01 0.06 0.04 0.06 0.16 0.13 0.14 0.13 0.05 0.03 0.06 0.07 0.08 0.04 0.03 0.08 0.07
0.08 0.11 0.15 0.12 0.12 0.05 0.05 0.04 0.01 0.02 0.13 0.17 0.20 0.13 0.03 0.03 0.05 0.11 0.10 0.08 0.07 0.04 0.14 0.63 0.78 0.75 0.70 0.59 0.29 0.29 0.35 0.32 0.35 0.52 0.47 0.11 0.02 0.02 0.02 0.01 0.02 0.15 0.22 0.10 0.09 0.05 0.03 0.01 0.02 0.06 0.04 0.06 0.07 0.05
0.13 0.27 0.15 0.09 0.12 0.05 0.10 0.04 0.03 0.09 0.12 0.13 0.08 0.03 0.04 0.04 0.05 0.04 0.02 0.01 0.00 0.01 0.09 0.26 0.55 0.42 0.65 0.35 0.48 0.44 0.35 0.35 0.52 0.34 0.14 0.06 0.01 0.01 0.02 0.09 0.06 0.15 0.18 0.30 0.27 0.17 0.13 0.05 0.01 0.01 0.03 0.03 0.03 0.03
0.24 0.20 0.08 0.03 0.05 0.07 0.04 0.04 0.08 0.11 0.07 0.02 0.02 0.02 0.01 0.01 0.01 0.01 0.01 0.01 0.01 0.05 0.10 0.14 0.28 0.25 0.32 0.18 0.17 0.20 0.30 0.34 0.17 0.04 0.02 0.02 0.03 0.01 0.01 0.04 0.03 0.09 0.03 0.02 0.01 0.09 0.18 0.08 0.08 0.14 0.08 0.05 0.04 0.03
0.02 0.04 0.02 0.04 0.05 0.09 0.09 0.08 0.10 0.05 0.02 0.00 0.01 0.01 0.02 0.01 0.01 0.01 0.01 0.01 0.01 0.07 0.14 0.19 0.19 0.08 0.03 0.03 0.12 0.21 0.12 0.03 0.00 0.00 0.00 0.01 0.00 0.00 0.00 0.00 0.00 0.05 0.06 0.03 0.02 0.02 0.01 0.01 0.02 0.02 0.04 0.03 0.01 0.00
0.01 0.03 0.05 0.02 0.02 0.06 0.07 0.05 0.11 0.11 0.01 0.01 0.01 0.01 0.01 0.01 0.00 0.00 0.00 0.00 0.00 0.03 0.15 0.13 0.08 0.05 0.05 0.10 0.12 0.04 0.01 0.01 0.02 0.01 0.00 0.00 0.00 0.01 0.00 0.00 0.00 0.01 0.04 0.04 0.04 0.04 0.02 0.00 0.00 0.00 0.00 0.00 0.00 0.00
0.01 0.01 0.02 0.00 0.04 0.16 0.16 0.09 0.08 0.06 0.02 0.02 0.01 0.01 0.01 0.01 0.01 0.01 0.00 0.00 0.01 0.12 0.19 0.10 0.02 0.04 0.07 0.05 0.03 0.03 0.02 0.04 0.04 0.02 0.01 0.01 0.01 0.01 0.00 0.00 0.00 0.01 0.02 0.03 0.04 0.04 0.04 0.03 0.01 0.00 0.00 0.00 0.00 0.00
0.02 0.02 0.00 0.01 0.09 0.15 0.17 0.13 0.09 0.04 0.02 0.01 0.01 0.01 0.01 0.00 0.00 0.01 0.01 0.00 0.07 0.09 0.05 0.03 0.04 0.03 0.02 0.01 0.01 0.02 0.02 0.03 0.02 0.03 0.03 0.02 0.01 0.01 0.01 0.01 0.01 0.01 0.01 0.02 0.02 0.02 0.02 0.03 0.03 0.01 0.00 0.00 0.00 0.00
0.08 0.00 0.04 0.05 0.08 0.12 0.08 0.02 0.03 0.03 0.05 0.01 0.01 0.01 0.02 0.02 0.01 0.01 0.01 0.03 0.04 0.02 0.04 0.07 0.07 0.03 0.02 0.01 0.01 0.01 0.01 0.00 0.00 0.01 0.01 0.01 0.02 0.02 0.02 0.01 0.02 0.02 0.01 0.01 0.02 0.01 0.01 0.01 0.01 0.02 0.01 0.00 0.00 0.00
0.00 0.00 0.05 0.19 0.19 0.07 0.01 0.01 0.06 0.03 0.06 0.04 0.04 0.03 0.02 0.02 0.03 0.00 0.01 0.01 0.02 0.03 0.07 0.07 0.06 0.03 0.01 0.00 0.00 0.00 0.00 0.00 0.00 0.00 0.00 0.00 0.01 0.01 0.01 0.01 0.02 0.03 0.02 0.01 0.03 0.02 0.01 0.01 0.01 0.02 0.02 0.02 0.01 0.01
0.07 0.14 0.10 0.11 0.12 0.02 0.01 0.02 0.03 0.04 0.06 0.03 0.04 0.02 0.01 0.02 0.01 0.02 0.02 0.00 0.02 0.01 0.00 0.00 0.00 0.01 0.01 0.01 0.00 0.00 0.00 0.00 0.00 0.00 0.00 0.01 0.02 0.02 0.02 0.01 0.01 0.02 0.03 0.04 0.03 0.02 0.02 0.02 0.02 0.02 0.02 0.03 0.03 0.03
0.15 0.08 0.08 0.06 0.05 0.06 0.03 0.01 0.01 0.02 0.02 0.02 0.03 0.01 0.02 0.00 0.02 0.01 0.00 0.01 0.01 0.00 0.01 0.01 0.02 0.02 0.01 0.01 0.00 0.00 0.00 0.01 0.02 0.02 0.00 0.01 0.02 0.04 0.06 0.05 0.04 0.02 0.03 0.08 0.06 0.06 0.05 0.06 0.05 0.04 0.04 0.04 0.04 0.04
0.07 0.00 0.01 0.01 0.02 0.02 0.01 0.01 0.02 0.03 0.04 0.04 0.02 0.01 0.01 0.01 0.02 0.00 0.00 0.00 0.00 0.02 0.06 0.05 0.03 0.02 0.01 0.01 0.01 0.01 0.01 0.01 0.03 0.03 0.00 0.00 0.02 0.05 0.07 0.06 0.06 0.05 0.04 0.09 0.12 0.14 0.13 0.12 0.13 0.11 0.09 0.06 0.05 0.06
0.01 0.00 0.00 0.00 0.00 0.01 0.03 0.02 0.02 0.03 0.03 0.01 0.01 0.01 0.02 0.02 0.01 0.01 0.03 0.10 0.14 0.16 0.10 0.05 0.02 0.02 0.02 0.02 0.01 0.00 0.00 0.00 0.02 0.02 0.01 0.01 0.02 0.03 0.08 0.14 0.11 0.06 0.08 0.16 0.20 0.20 0.21 0.21 0.20 0.18 0.16 0.17 0.15 0.11
0.01 0.00 0.00 0.00 0.01 0.05 0.09 0.05 0.01 0.01 0.01 0.01 0.03 0.03 0.03 0.02 0.02 0.03 0.08 0.09 0.04 0.01 0.00 0.00 0.00 0.01 0.01 0.01 0.01 0.01 0.02 0.02 0.03 0.04 0.06 0.06 0.05 0.04 0.03 0.05 0.08 0.13 0.14 0.15 0.16 0.17 0.19 0.19 0.18 0.18 0.20 0.19 0.17 0.16
0.01 0.00 0.00 0.01 0.00 0.01 0.01 0.00 0.00 0.01 0.00 0.02 0.10 0.07 0.03 0.02 0.01 0.02 0.02 0.01 0.00 0.00 0.00 0.01 0.01 0.01 0.03 0.03 0.04 0.05 0.06 0.08 0.09 0.08 0.05 0.03 0.03 0.04 0.07 0.11 0.15 0.18 0.16 0.16 0.16 0.15 0.15 0.17 0.17 0.18 0.18 0.20 0.21 0.24
0.00 0.00 0.00 0.00 0.00 0.00 0.00 0.01 0.02 0.02 0.01 0.02 0.05 0.04 0.01 0.00 0.00 0.00 0.00 0.01 0.01 0.03 0.04 0.03 0.01 0.01 0.03 0.04 0.05 0.04 0.04 0.06 0.09 0.11 0.12 0.06 0.03 0.04 0.08 0.09 0.11 0.15 0.18 0.21 0.20 0.21 0.24 0.23 0.23 0.25 0.25 0.26 0.26 0.26
0.00 0.00 0.00 0.00 0.00 0.00 0.00 0.01 0.00 0.00 0.00 0.01 0.01 0.02 0.02 0.01 0.01 0.01 0.01 0.03 0.06 0.07 0.04 0.02 0.02 0.02 0.05 0.05 0.06 0.07 0.05 0.04 0.05 0.05 0.06 0.08 0.07 0.07 0.05 0.05 0.05 0.08 0.13 0.17 0.18 0.19 0.19 0.19 0.17 0.18 0.20 0.20 0.19 0.20
0.00 0.00 0.00 0.00 0.00 0.00 0.00 0.00 0.01 0.01 0.00 0.01 0.01 0.02 0.03 0.04 0.04 0.09 0.07 0.08 0.07 0.06 0.06 0.06 0.05 0.04 0.03 0.03 0.05 0.07 0.09 0.06 0.05 0.06 0.08 0.10 0.10 0.08 0.09 0.09 0.09 0.11 0.13 0.14 0.16 0.17 0.17 0.18 0.18 0.18 0.19 0.20 0.22 0.21
0.00 0.00 0.00 0.00 0.00 0.01 0.03 0.02 0.01 0.00 0.00 0.00 0.00 0.00 0.02 0.07 0.10 0.14 0.11 0.06 0.05 0.06 0.06 0.07 0.08 0.07 0.05 0.05 0.06 0.07 0.07 0.07 0.07 0.09 0.14 0.17 0.19 0.20 0.23 0.21 0.19 0.17 0.18 0.18 0.17 0.19 0.23 0.24 0.24 0.22 0.21 0.20 0.20 0.19

GFSWCAN_prec_precacc24_195.txt.gz
Total_Precipitation_Accumulation
0.06 0.06 0.06 0.06 0.05 0.05 0.06 0.06 0.08 0.08 0.08 0.08 0.08 0.07 0.08 0.13 0.18 0.18 0.06 0.03 0.11 0.14 0.04 0.01 0.01 0.05 0.11 0.19 0.14 0.06 0.08 0.13 0.20 0.18 0.17 0.11 0.10 0.02 0.02 0.00 0.02 0.05 0.08 0.07 0.20 0.38 0.32 0.06 0.03 0.07 0.04 0.04 0.03 0.04
0.05 0.05 0.04 0.04 0.04 0.03 0.04 0.05 0.06 0.07 0.07 0.07 0.07 0.07 0.08 0.11 0.24 0.35 0.21 0.08 0.21 0.43 0.15 0.04 0.03 0.01 0.01 0.07 0.25 0.22 0.14 0.14 0.23 0.30 0.24 0.27 0.22 0.13 0.10 0.08 0.02 0.05 0.06 0.05 0.07 0.04 0.01 0.02 0.04 0.06 0.04 0.03 0.02 0.01
0.06 0.05 0.03 0.03 0.02 0.02 0.02 0.04 0.04 0.05 0.04 0.06 0.06 0.07 0.10 0.12 0.24 0.37 0.36 0.40 0.69 1.00 0.40 0.05 0.00 0.00 0.00 0.01 0.13 0.43 0.33 0.31 0.24 0.18 0.30 0.29 0.25 0.13 0.11 0.06 0.04 0.02 0.03 0.13 0.15 0.03 0.00 0.00 0.01 0.06 0.08 0.03 0.02 0.01
0.05 0.04 0.02 0.01 0.02 0.02 0.03 0.04 0.04 0.03 0.03 0.03 0.03 0.07 0.12 0.18 0.27 0.26 0.22 0.36 0.65 0.90 0.49 0.04 0.01 0.01 0.02 0.01 0.03 0.07 0.17 0.37 0.55 0.59 0.74 0.49 0.26 0.14 0.12 0.08 0.07 0.03 0.05 0.13 0.14 0.07 0.05 0.03 0.01 0.06 0.12 0.05 0.03 0.00
0.03 0.02 0.02 0.01 0.01 0.02 0.03 0.03 0.02 0.02 0.01 0.01 0.04 0.07 0.08 0.09 0.17 0.22 0.26 0.24 0.30 0.46 0.40 0.08 0.02 0.01 0.02 0.02 0.03 0.02 0.05 0.13 0.44 0.91 0.81 0.47 0.20 0.19 0.13 0.10 0.05 0.02 0.09 0.19 0.17 0.08 0.08 0.03 0.02 0.05 0.16 0.09 0.02 0.01
0.01 0.01 0.03 0.03 0.01 0.02 0.02 0.02 0.02 0.03 0.04 0.04 0.06 0.06 0.06 0.07 0.10 0.17 0.15 0.08 0.09 0.22 0.42 0.10 0.00 0.00 0.01 0.00 0.01 0.02 0.03 0.10 0.42 0.66 0.51 0.28 0.16 0.49 0.54 0.11 0.00 0.00 0.00 0.01 0.02 0.02 0.08 0.18 0.12 0.07 0.13 0.12 0.08 0.02
0.01 0.01 0.02 0.04 0.03 0.02 0.01 0.01 0.02 0.02 0.04 0.07 0.07 0.07 0.11 0.08 0.08 0.19 0.20 0.12 0.13 0.36 0.67 0.25 0.01 0.01 0.05 0.03 0.04 0.05 0.05 0.06 0.21 0.28 0.18 0.05 0.05 0.41 0.38 0.07 0.00 0.00 0.00 0.00 0.01 0.05 0.06 0.07 0.09 0.04 0.06 0.09 0.09 0.14
0.02 0.01 0.02 0.04 0.04 0.02 0.01 0.02 0.03 0.04 0.04 0.04 0.05 0.06 0.10 0.07 0.04 0.03 0.04 0.03 0.07 0.24 0.37 0.22 0.02 0.05 0.01 0.03 0.08 0.09 0.09 0.17 0.17 0.12 0.04 0.02 0.04 0.16 0.16 0.00 0.00 0.00 0.00 0.00 0.00 0.02 0.01 0.02 0.03 0.03 0.03 0.03 0.02 0.03
0.02 0.03 0.03 0.03 0.04 0.04 0.04 0.04 0.05 0.05 0.06 0.04 0.05 0.04 0.05 0.08 0.08 0.05 0.04 0.04 0.05 0.15 0.18 0.08 0.03 0.13 0.10 0.06 0.07 0.04 0.07 0.09 0.07 0.10 0.02 0.05 0.06 0.12 0.02 0.00 0.00 0.00 0.01 0.04 0.07 0.04 0.02 0.04 0.06 0.05 0.04 0.04 0.02 0.00
0.03 0.03 0.04 0.03 0.04 0.04 0.06 0.05 0.06 0.09 0.09 0.05 0.02 0.04 0.03 0.04 0.04 0.10 0.10 0.15 0.21 0.21 0.13 0.04 0.01 0.10 0.21 0.16 0.11 0.07 0.07 0.06 0.11 0.04 0.04 0.11 0.03 0.01 0.02 0.04 0.07 0.13 0.14 0.13 0.15 0.03 0.02 0.04 0.03 0.05 0.04 0.03 0.02 0.01
0.04 0.04 0.04 0.04 0.04 0.06 0.06 0.06 0.07 0.11 0.05 0.02 0.02 0.03 0.13 0.11 0.11 0.14 0.16 0.13 0.09 0.13 0.07 0.01 0.00 0.03 0.10 0.24 0.31 0.23 0.20 0.17 0.24 0.06 0.16 0.15 0.04 0.09 0.14 0.18 0.21 0.26 0.22 0.15 0.10 0.06 0.08 0.14 0.09 0.06 0.04 0.03 0.03 0.02
0.04 0.05 0.05 0.05 0.07 0.06 0.05 0.04 0.03 0.01 0.01 0.01 0.06 0.10 0.12 0.13 0.21 0.12 0.11 0.11 0.17 0.10 0.10 0.11 0.15 0.24 0.17 0.27 0.54 0.52 0.42 0.32 0.19 0.17 0.45 0.21 0.21 0.20 0.14 0.10 0.08 0.09 0.08 0.14 0.19 0.30 0.17 0.14 0.10 0.07 0.03 0.02 0.01 0.03
0.04 0.06 0.07 0.06 0.08 0.08 0.04 0.04 0.01 0.01 0.01 0.03 0.07 0.19 0.14 0.19 0.20 0.18 0.12 0.11 0.27 0.29 0.27 0.58 0.88 0.97 0.76 0.67 0.67 0.30 0.32 0.16 0.15 0.27 0.30 0.46 0.25 0.06 0.07 0.08 0.04 0.07 0.15 0.24 0.22 0.20 0.18 0.13 0.09 0.05 0.02 0.01 0.02 0.06
0.05 0.07 0.09 0.07 0.09 0.08 0.04 0.04 0.01 0.01 0.05 0.11 0.07 0.15 0.10 0.10 0.03 0.02 0.09 0.26 0.41 0.35 0.19 0.49 1.22 1.15 0.65 0.84 0.49 0.32 0.14 0.16 0.27 0.33 0.51 0.26 0.04 0.02 0.06 0.04 0.06 0.17 0.13 0.14 0.14 0.09 0.07 0.09 0.09 0.08 0.04 0.03 0.08 0.07
0.06 0.09 0.14 0.11 0.13 0.07 0.06 0.05 0.01 0.01 0.07 0.11 0.17 0.11 0.03 0.03 0.05 0.11 0.10 0.08 0.07 0.04 0.12 0.61 0.75 0.77 0.72 0.63 0.31 0.31 0.39 0.42 0.46 0.57 0.48 0.12 0.03 0.02 0.03 0.02 0.03 0.16 0.22 0.10 0.10 0.07 0.05 0.02 0.02 0.06 0.05 0.06 0.07 0.05
0.11 0.24 0.14 0.09 0.13 0.07 0.11 0.04 0.01 0.03 0.07 0.10 0.07 0.02 0.04 0.04 0.04 0.04 0.02 0.01 0.00 0.01 0.09 0.26 0.56 0.44 0.69 0.40 0.54 0.53 0.48 0.46 0.56 0.35 0.14 0.06 0.01 0.01 0.03 0.09 0.06 0.16 0.19 0.30 0.28 0.19 0.17 0.09 0.02 0.02 0.03 0.03 0.03 0.04
0.20 0.20 0.08 0.04 0.06 0.08 0.04 0.02 0.03 0.05 0.06 0.02 0.01 0.01 0.01 0.01 0.00 0.00 0.01 0.01 0.00 0.05 0.10 0.16 0.31 0.28 0.34 0.20 0.20 0.25 0.33 0.36 0.17 0.04 0.02 0.02 0.03 0.01 0.01 0.04 0.04 0.09 0.03 0.02 0.01 0.09 0.20 0.09 0.08 0.15 0.10 0.07 0.07 0.06
0.03 0.04 0.02 0.03 0.06 0.09 0.06 0.06 0.07 0.04 0.02 0.00 0.00 0.01 0.01 0.01 0.01 0.01 0.01 0.01 0.01 0.07 0.15 0.21 0.22 0.09 0.04 0.04 0.15 0.24 0.13 0.03 0.00 0.00 0.00 0.01 0.00 0.00 0.00 0.00 0.00 0.05 0.06 0.03 0.02 0.02 0.02 0.02 0.02 0.03 0.05 0.05 0.06 0.05
0.02 0.02 0.02 0.01 0.01 0.04 0.05 0.05 0.11 0.09 0.01 0.01 0.01 0.01 0.00 0.00 0.00 0.00 0.00 0.00 0.00 0.03 0.16 0.14 0.09 0.06 0.06 0.13 0.14 0.06 0.01 0.01 0.02 0.00 0.00 0.00 0.00 0.01 0.00 0.00 0.00 0.01 0.04 0.04 0.04 0.05 0.02 0.01 0.01 0.01 0.00 0.00 0.00 0.00
0.01 0.01 0.01 0.00 0.04 0.16 0.14 0.06 0.04 0.02 0.00 0.02 0.01 0.01 0.01 0.01 0.01 0.01 0.00 0.00 0.01 0.12 0.19 0.12 0.02 0.05 0.09 0.07 0.04 0.03 0.02 0.04 0.04 0.02 0.01 0.01 0.01 0.01 0.00 0.00 0.00 0.01 0.02 0.03 0.05 0.04 0.04 0.04 0.02 0.01 0.01 0.00 0.00 0.00
0.04 0.04 0.01 0.01 0.08 0.15 0.18 0.13 0.08 0.02 0.02 0.01 0.01 0.01 0.01 0.00 0.00 0.00 0.00 0.00 0.05 0.07 0.04 0.03 0.07 0.06 0.04 0.02 0.01 0.02 0.02 0.03 0.02 0.03 0.03 0.02 0.01 0.01 0.01 0.01 0.01 0.01 0.01 0.02 0.03 0.03 0.02 0.03 0.04 0.03 0.03 0.03 0.02 0.00
0.08 0.00 0.05 0.05 0.09 0.12 0.08 0.02 0.03 0.03 0.05 0.01 0.01 0.01 0.02 0.01 0.01 0.01 0.01 0.02 0.02 0.02 0.06 0.10 0.10 0.06 0.02 0.01 0.01 0.00 0.00 0.00 0.00 0.01 0.01 0.01 0.02 0.02 0.02 0.01 0.02 0.02 0.01 0.01 0.02 0.02 0.02 0.01 0.02 0.03 0.04 0.04 0.04 0.04
0.01 0.01 0.06 0.19 0.19 0.07 0.01 0.01 0.06 0.03 0.06 0.04 0.04 0.04 0.02 0.03 0.03 0.00 0.01 0.01 0.02 0.05 0.08 0.08 0.06 0.03 0.01 0.01 0.00 0.01 0.02 0.02 0.01 0.00 0.00 0.00 0.01 0.01 0.01 0.01 0.02 0.03 0.02 0.01 0.03 0.03 0.03 0.02 0.02 0.03 0.04 0.04 0.05 0.06
0.07 0.15 0.11 0.11 0.12 0.02 0.01 0.03 0.03 0.05 0.07 0.04 0.05 0.03 0.01 0.03 0.03 0.03 0.02 0.01 0.03 0.03 0.01 0.00 0.00 0.01 0.01 0.02 0.02 0.02 0.01 0.01 0.01 0.00 0.00 0.01 0.03 0.02 0.02 0.01 0.01 0.02 0.03 0.05 0.04 0.05 0.05 0.04 0.04 0.04 0.04 0.05 0.06 0.07
0.20 0.09 0.09 0.07 0.06 0.08 0.04 0.02 0.02 0.03 0.03 0.02 0.05 0.02 0.03 0.02 0.03 0.02 0.01 0.01 0.02 0.02 0.01 0.02 0.02 0.02 0.03 0.02 0.01 0.01 0.00 0.02 0.03 0.02 0.00 0.01 0.02 0.04 0.06 0.05 0.04 0.02 0.03 0.10 0.09 0.08 0.06 0.06 0.06 0.05 0.06 0.06 0.06 0.06
0.11 0.01 0.01 0.02 0.04 0.03 0.02 0.01 0.02 0.03 0.05 0.05 0.03 0.03 0.02 0.03 0.04 0.01 0.01 0.01 0.01 0.03 0.11 0.12 0.08 0.05 0.02 0.02 0.03 0.02 0.01 0.01 0.03 0.03 0.00 0.00 0.02 0.05 0.07 0.06 0.06 0.05 0.04 0.09 0.13 0.14 0.13 0.12 0.13 0.12 0.11 0.08 0.08 0.09
0.02 0.00 0.00 0.00 0.00 0.01 0.04 0.04 0.03 0.05 0.06 0.03 0.02 0.02 0.03 0.04 0.02 0.02 0.08 0.16 0.17 0.20 0.15 0.08 0.03 0.03 0.02 0.02 0.02 0.01 0.00 0.00 0.02 0.02 0.01 0.01 0.02 0.03 0.08 0.14 0.12 0.06 0.08 0.16 0.20 0.21 0.23 0.22 0.21 0.19 0.18 0.18 0.17 0.14
0.01 0.00 0.00 0.00 0.01 0.06 0.12 0.08 0.04 0.03 0.03 0.02 0.04 0.04 0.04 0.03 0.02 0.04 0.10 0.10 0.04 0.01 0.00 0.01 0.01 0.01 0.01 0.01 0.01 0.01 0.02 0.02 0.03 0.04 0.06 0.06 0.05 0.04 0.03 0.06 0.08 0.13 0.14 0.15 0.16 0.18 0.20 0.20 0.19 0.19 0.21 0.20 0.17 0.17
0.01 0.00 0.01 0.01 0.01 0.02 0.02 0.01 0.01 0.01 0.01 0.03 0.11 0.08 0.04 0.02 0.01 0.03 0.02 0.01 0.00 0.00 0.01 0.02 0.04 0.02 0.03 0.03 0.04 0.05 0.06 0.08 0.09 0.08 0.04 0.03 0.03 0.03 0.07 0.11 0.15 0.18 0.17 0.16 0.16 0.15 0.15 0.17 0.18 0.18 0.18 0.20 0.21 0.24
0.00 0.00 0.00 0.00 0.00 0.00 0.00 0.01 0.01 0.01 0.01 0.02 0.04 0.03 0.01 0.00 0.00 0.00 0.00 0.00 0.01 0.04 0.06 0.05 0.02 0.01 0.03 0.04 0.05 0.04 0.04 0.06 0.08 0.11 0.12 0.06 0.03 0.04 0.08 0.09 0.12 0.15 0.18 0.21 0.21 0.21 0.24 0.23 0.24 0.25 0.26 0.26 0.27 0.27
0.00 0.00 0.00 0.00 0.00 0.00 0.00 0.00 0.00 0.00 0.00 0.00 0.00 0.02 0.01 0.01 0.02 0.01 0.01 0.03 0.06 0.07 0.04 0.01 0.01 0.02 0.05 0.04 0.05 0.07 0.05 0.03 0.05 0.05 0.06 0.08 0.08 0.07 0.05 0.05 0.06 0.09 0.14 0.18 0.19 0.20 0.19 0.20 0.18 0.18 0.20 0.20 0.20 0.21
0.00 0.00 0.00 0.00 0.00 0.00 0.00 0.00 0.00 0.00 0.00 0.00 0.00 0.01 0.02 0.03 0.05 0.09 0.07 0.08 0.06 0.04 0.05 0.06 0.05 0.04 0.03 0.03 0.04 0.06 0.09 0.06 0.05 0.06 0.08 0.10 0.10 0.08 0.09 0.09 0.09 0.12 0.14 0.15 0.16 0.17 0.17 0.19 0.19 0.18 0.20 0.21 0.23 0.23
0.00 0.00 0.00 0.00 0.00 0.00 0.01 0.02 0.01 0.00 0.00 0.00 0.00 0.00 0.01 0.05 0.10 0.14 0.11 0.06 0.04 0.05 0.04 0.04 0.06 0.06 0.05 0.05 0.06 0.07 0.07 0.07 0.07 0.09 0.14 0.17 0.19 0.20 0.23 0.22 0.19 0.18 0.19 0.19 0.17 0.19 0.23 0.24 0.24 0.22 0.22 0.22 0.22 0.22